| time (UTC) | temp F | wind direction | speed MPH | gust MPH | rain 1hr in | rain 24hr in | rain mn in | humidity % | barometer mb |
| 20260503212905 | 68 | 136 | 4.0 | 12.0 | 0.00 | 0.00 | 0.00 | 60 | 1011.3 |
| 20260503212857 | 68 | 232 | 4.0 | 12.0 | 0.00 | 0.00 | 0.00 | 61 | 1011.4 |
| 20260503212657 | 67 | 231 | 4.0 | 12.0 | 0.00 | 0.00 | 0.00 | 62 | 1011.3 |
| 20260503212552 | 67 | 316 | 5.0 | 14.0 | 0.00 | 0.00 | 0.00 | 62 | 1011.2 |
| 20260503212452 | 67 | 280 | 6.0 | 14.0 | 0.00 | 0.00 | 0.00 | 60 | 1011.4 |
| 20260503212352 | 67 | 245 | 6.0 | 14.0 | 0.00 | 0.00 | 0.00 | 62 | 1011.4 |
| 20260503212251 | 67 | 222 | 6.0 | 14.0 | 0.00 | 0.00 | 0.00 | 61 | 1011.4 |
| 20260503212150 | 67 | 217 | 6.0 | 14.0 | 0.00 | 0.00 | 0.00 | 60 | 1011.4 |
| 20260503212043 | 67 | 235 | 6.0 | 15.0 | 0.00 | 0.00 | 0.00 | 61 | 1011.5 |
| 20260503211944 | 67 | 259 | 6.0 | 15.0 | 0.00 | 0.00 | 0.00 | 61 | 1011.4 |
| 20260503211844 | 67 | 266 | 7.0 | 15.0 | 0.00 | 0.00 | 0.00 | 61 | 1011.5 |
| 20260503211750 | 67 | 225 | 7.0 | 15.0 | 0.00 | 0.00 | 0.00 | 60 | 1011.5 |
| 20260503211744 | 67 | 253 | 7.0 | 15.0 | 0.00 | 0.00 | 0.00 | 60 | 1011.5 |
| 20260503211643 | 67 | 210 | 6.0 | 15.0 | 0.00 | 0.00 | 0.00 | 60 | 1011.5 |
| 20260503211544 | 68 | 240 | 6.0 | 15.0 | 0.00 | 0.00 | 0.00 | 60 | 1011.5 |
| 20260503211444 | 68 | 225 | 6.0 | 15.0 | 0.00 | 0.00 | 0.00 | 60 | 1011.5 |
| 20260503211344 | 68 | 271 | 6.0 | 15.0 | 0.00 | 0.00 | 0.00 | 61 | 1011.5 |
| 20260503211251 | 68 | 229 | 5.0 | 15.0 | 0.00 | 0.00 | 0.00 | 61 | 1011.6 |
| 20260503211244 | 68 | 225 | 5.0 | 15.0 | 0.00 | 0.00 | 0.00 | 61 | 1011.6 |
| 20260503211143 | 68 | 139 | 5.0 | 15.0 | 0.00 | 0.00 | 0.00 | 61 | 1011.5 |
| 20260503211044 | 68 | 205 | 4.0 | 13.0 | 0.00 | 0.00 | 0.00 | 61 | 1011.6 |
| 20260503210942 | 68 | 170 | 4.0 | 13.0 | 0.00 | 0.00 | 0.00 | 60 | 1011.7 |
| 20260503210842 | 68 | 207 | 4.0 | 13.0 | 0.00 | 0.00 | 0.00 | 60 | 1011.7 |
| 20260503210749 | 68 | 204 | 3.0 | 11.0 | 0.00 | 0.00 | 0.00 | 61 | 1011.7 |
| 20260503210741 | 68 | 239 | 3.0 | 11.0 | 0.00 | 0.00 | 0.00 | 61 | 1011.7 |
| 20260503210640 | 68 | 264 | 3.0 | 11.0 | 0.00 | 0.00 | 0.00 | 61 | 1011.7 |
| 20260503210539 | 68 | 241 | 3.0 | 11.0 | 0.00 | 0.00 | 0.00 | 60 | 1011.7 |
| 20260503210510 | 68 | 197 | 3.0 | 11.0 | 0.00 | 0.00 | 0.00 | 60 | 1011.7 |
| 20260503210437 | 68 | 191 | 3.0 | 11.0 | 0.00 | 0.00 | 0.00 | 61 | 1011.7 |
| 20260503210400 | 68 | 217 | 3.0 | 11.0 | 0.00 | 0.00 | 0.00 | 60 | 1011.7 |
| 20260503210238 | 68 | 215 | 3.0 | 11.0 | 0.00 | 0.00 | 0.00 | 60 | 1011.7 |
| 20260503210137 | 68 | 224 | 3.0 | 11.0 | 0.00 | 0.00 | 0.00 | 60 | 1011.7 |
| 20260503210037 | 68 | 267 | 3.0 | 11.0 | 0.00 | 0.00 | 0.00 | 60 | 1011.8 |
| 20260503210007 | 68 | 226 | 4.0 | 13.0 | 0.00 | 0.00 | 0.00 | 61 | 1011.8 |
| 20260503205938 | 68 | 235 | 4.0 | 13.0 | 0.00 | 0.00 | 0.00 | 60 | 1011.8 |
| 20260503205901 | 68 | 248 | 4.0 | 13.0 | 0.00 | 0.00 | 0.00 | 60 | 1011.8 |
| 20260503205731 | 67 | 229 | 4.0 | 13.0 | 0.00 | 0.00 | 0.00 | 62 | 1011.7 |
| 20260503205631 | 67 | 243 | 4.0 | 13.0 | 0.00 | 0.00 | 0.00 | 62 | 1011.8 |
| 20260503205532 | 67 | 219 | 4.0 | 13.0 | 0.00 | 0.00 | 0.00 | 62 | 1011.8 |
| 20260503205517 | 67 | 233 | 5.0 | 15.0 | 0.00 | 0.00 | 0.00 | 61 | 1011.8 |
| 20260503205430 | 67 | 219 | 5.0 | 13.0 | 0.00 | 0.00 | 0.00 | 62 | 1011.8 |
| 20260503205401 | 67 | 226 | 5.0 | 15.0 | 0.00 | 0.00 | 0.00 | 60 | 1011.8 |
| 20260503205226 | 67 | 219 | 5.0 | 15.0 | 0.00 | 0.00 | 0.00 | 61 | 1011.8 |
| 20260503205124 | 67 | 273 | 5.0 | 15.0 | 0.00 | 0.00 | 0.00 | 61 | 1011.8 |
| 20260503205023 | 67 | 219 | 5.0 | 15.0 | 0.00 | 0.00 | 0.00 | 61 | 1011.7 |
| 20260503204923 | 67 | 239 | 5.0 | 15.0 | 0.00 | 0.00 | 0.00 | 62 | 1011.7 |
| 20260503204824 | 66 | 263 | 6.0 | 15.0 | 0.00 | 0.00 | 0.00 | 63 | 1011.8 |
| 20260503204742 | 66 | 245 | 6.0 | 15.0 | 0.00 | 0.00 | 0.00 | 62 | 1011.8 |
| 20260503204726 | 66 | 242 | 6.0 | 15.0 | 0.00 | 0.00 | 0.00 | 62 | 1011.8 |
| 20260503204623 | 66 | 239 | 6.0 | 15.0 | 0.00 | 0.00 | 0.00 | 62 | 1011.8 |
| 20260503204524 | 66 | 260 | 6.0 | 15.0 | 0.00 | 0.00 | 0.00 | 61 | 1011.7 |
| 20260503204424 | 66 | 231 | 5.0 | 15.0 | 0.00 | 0.00 | 0.00 | 61 | 1011.8 |
| 20260503204324 | 66 | 226 | 6.0 | 14.0 | 0.00 | 0.00 | 0.00 | 62 | 1011.8 |
| 20260503204239 | 66 | 309 | 6.0 | 14.0 | 0.00 | 0.00 | 0.00 | 61 | 1011.8 |
| 20260503204222 | 66 | 221 | 6.0 | 14.0 | 0.00 | 0.00 | 0.00 | 61 | 1011.8 |
| 20260503204121 | 67 | 267 | 6.0 | 14.0 | 0.00 | 0.00 | 0.00 | 61 | 1011.8 |
| 20260503204022 | 67 | 212 | 6.0 | 17.0 | 0.00 | 0.00 | 0.00 | 61 | 1011.8 |
| 20260503203922 | 67 | 248 | 6.0 | 17.0 | 0.00 | 0.00 | 0.00 | 61 | 1011.8 |
| 20260503203819 | 67 | 198 | 5.0 | 17.0 | 0.00 | 0.00 | 0.00 | 61 | 1011.8 |
| 20260503203740 | 67 | 239 | 5.0 | 17.0 | 0.00 | 0.00 | 0.00 | 61 | 1011.8 |
| 20260503203717 | 67 | 312 | 5.0 | 17.0 | 0.00 | 0.00 | 0.00 | 61 | 1011.8 |
| 20260503203618 | 67 | 291 | 5.0 | 17.0 | 0.00 | 0.00 | 0.00 | 61 | 1011.8 |
| 20260503203518 | 67 | 256 | 4.0 | 17.0 | 0.00 | 0.00 | 0.00 | 60 | 1011.8 |
| 20260503203417 | 68 | 259 | 4.0 | 17.0 | 0.00 | 0.00 | 0.00 | 60 | 1011.9 |
| 20260503203318 | 68 | 215 | 3.0 | 17.0 | 0.00 | 0.00 | 0.00 | 59 | 1011.8 |
| 20260503203246 | 68 | 239 | 3.0 | 17.0 | 0.00 | 0.00 | 0.00 | 58 | 1011.9 |
| 20260503203217 | 68 | 240 | 3.0 | 17.0 | 0.00 | 0.00 | 0.00 | 58 | 1011.9 |
| 20260503203111 | 69 | 239 | 2.0 | 17.0 | 0.00 | 0.00 | 0.00 | 59 | 1011.8 |
| 20260503203011 | 69 | 307 | 2.0 | 8.0 | 0.00 | 0.00 | 0.00 | 60 | 1011.8 |
| 20260503202912 | 68 | 221 | 3.0 | 8.0 | 0.00 | 0.00 | 0.00 | 62 | 1011.9 |
| 20260503202812 | 68 | 322 | 3.0 | 8.0 | 0.00 | 0.00 | 0.00 | 61 | 1011.9 |
| 20260503202744 | 68 | 195 | 3.0 | 8.0 | 0.00 | 0.00 | 0.00 | 61 | 1011.9 |
| 20260503202710 | 68 | 219 | 3.0 | 8.0 | 0.00 | 0.00 | 0.00 | 61 | 1011.9 |
| 20260503202604 | 68 | 248 | 3.0 | 8.0 | 0.00 | 0.00 | 0.00 | 61 | 1011.8 |
| 20260503202504 | 68 | 312 | 4.0 | 9.0 | 0.00 | 0.00 | 0.00 | 60 | 1011.9 |
| 20260503202403 | 68 | 211 | 4.0 | 9.0 | 0.00 | 0.00 | 0.00 | 60 | 1011.9 |
| 20260503202304 | 68 | 219 | 5.0 | 13.0 | 0.00 | 0.00 | 0.00 | 60 | 1011.8 |
| 20260503202246 | 68 | 236 | 5.0 | 13.0 | 0.00 | 0.00 | 0.00 | 60 | 1011.8 |
| 20260503202203 | 68 | 236 | 5.0 | 13.0 | 0.00 | 0.00 | 0.00 | 60 | 1011.8 |
| 20260503202104 | 68 | 250 | 5.0 | 13.0 | 0.00 | 0.00 | 0.00 | 61 | 1011.9 |
| 20260503202013 | 67 | 224 | 5.0 | 13.0 | 0.00 | 0.00 | 0.00 | 61 | 1011.8 |
| 20260503202004 | 68 | 207 | 5.0 | 13.0 | 0.00 | 0.00 | 0.00 | 61 | 1011.9 |
| 20260503201904 | 67 | 204 | 5.0 | 13.0 | 0.00 | 0.00 | 0.00 | 61 | 1011.8 |
| 20260503201846 | 67 | 231 | 5.0 | 13.0 | 0.00 | 0.00 | 0.00 | 61 | 1011.8 |
| 20260503201704 | 67 | 242 | 5.0 | 13.0 | 0.00 | 0.00 | 0.00 | 62 | 1011.8 |
| 20260503201603 | 67 | 214 | 5.0 | 13.0 | 0.00 | 0.00 | 0.00 | 60 | 1011.8 |
| 20260503201501 | 67 | 256 | 5.0 | 13.0 | 0.00 | 0.00 | 0.00 | 60 | 1011.8 |
| 20260503201402 | 67 | 233 | 5.0 | 13.0 | 0.00 | 0.00 | 0.00 | 60 | 1011.8 |
| 20260503201302 | 67 | 266 | 4.0 | 13.0 | 0.00 | 0.00 | 0.00 | 60 | 1011.8 |
| 20260503201240 | 67 | 256 | 4.0 | 13.0 | 0.00 | 0.00 | 0.00 | 60 | 1011.7 |
| 20260503201200 | 67 | 235 | 4.0 | 12.0 | 0.00 | 0.00 | 0.00 | 61 | 1011.7 |
| 20260503201100 | 67 | 218 | 4.0 | 12.0 | 0.00 | 0.00 | 0.00 | 61 | 1011.8 |
| 20260503200958 | 67 | 200 | 4.0 | 12.0 | 0.00 | 0.00 | 0.00 | 61 | 1011.8 |
| 20260503200858 | 67 | 303 | 3.0 | 12.0 | 0.00 | 0.00 | 0.00 | 61 | 1011.8 |
| 20260503200758 | 67 | 217 | 4.0 | 9.0 | 0.00 | 0.00 | 0.00 | 62 | 1011.8 |
| 20260503200741 | 67 | 233 | 4.0 | 10.0 | 0.00 | 0.00 | 0.00 | 62 | 1011.8 |
| 20260503200658 | 67 | 225 | 4.0 | 10.0 | 0.00 | 0.00 | 0.00 | 61 | 1011.8 |
| 20260503200558 | 67 | 176 | 3.0 | 10.0 | 0.00 | 0.00 | 0.00 | 60 | 1011.8 |
| 20260503200457 | 67 | 228 | 3.0 | 10.0 | 0.00 | 0.00 | 0.00 | 61 | 1011.8 |
| 20260503200352 | 67 | 236 | 3.0 | 10.0 | 0.00 | 0.00 | 0.00 | 61 | 1011.9 |
| 20260503200251 | 67 | 252 | 4.0 | 13.0 | 0.00 | 0.00 | 0.00 | 60 | 1011.8 |
| 20260503200240 | 67 | 278 | 4.0 | 13.0 | 0.00 | 0.00 | 0.00 | 60 | 1011.8 |
| 20260503200152 | 67 | 248 | 4.0 | 13.0 | 0.00 | 0.00 | 0.00 | 61 | 1011.8 |
| 20260503200052 | 67 | 165 | 3.0 | 13.0 | 0.00 | 0.00 | 0.00 | 61 | 1011.8 |
| 20260503195950 | 67 | 270 | 4.0 | 13.0 | 0.00 | 0.00 | 0.00 | 60 | 1011.8 |
| 20260503195844 | 68 | 278 | 4.0 | 13.0 | 0.00 | 0.00 | 0.00 | 60 | 1011.8 |
| 20260503195747 | 68 | 305 | 4.0 | 13.0 | 0.00 | 0.00 | 0.00 | 61 | 1011.8 |
| 20260503195741 | 68 | 285 | 4.0 | 13.0 | 0.00 | 0.00 | 0.00 | 61 | 1011.8 |
| 20260503195644 | 67 | 172 | 4.0 | 13.0 | 0.00 | 0.00 | 0.00 | 62 | 1011.8 |
| 20260503195543 | 67 | 290 | 4.0 | 13.0 | 0.00 | 0.00 | 0.00 | 62 | 1011.8 |
| 20260503195443 | 67 | 269 | 4.0 | 13.0 | 0.00 | 0.00 | 0.00 | 63 | 1011.8 |
| 20260503195339 | 67 | 271 | 4.0 | 13.0 | 0.00 | 0.00 | 0.00 | 62 | 1011.8 |
| 20260503195239 | 67 | 278 | 3.0 | 11.0 | 0.00 | 0.00 | 0.00 | 62 | 1011.8 |
| 20260503195138 | 67 | 238 | 3.0 | 11.0 | 0.00 | 0.00 | 0.00 | 62 | 1011.7 |
| 20260503195038 | 67 | 266 | 3.0 | 11.0 | 0.00 | 0.00 | 0.00 | 62 | 1011.8 |
| 20260503194935 | 67 | 215 | 4.0 | 13.0 | 0.00 | 0.00 | 0.00 | 62 | 1011.7 |
| 20260503194830 | 66 | 205 | 4.0 | 13.0 | 0.00 | 0.00 | 0.00 | 62 | 1011.8 |
| 20260503194741 | 66 | 274 | 4.0 | 13.0 | 0.00 | 0.00 | 0.00 | 63 | 1011.8 |
| 20260503194729 | 66 | 274 | 4.0 | 13.0 | 0.00 | 0.00 | 0.00 | 62 | 1011.8 |
| 20260503194628 | 66 | 221 | 3.0 | 13.0 | 0.00 | 0.00 | 0.00 | 63 | 1011.8 |
| 20260503194528 | 66 | 246 | 4.0 | 13.0 | 0.00 | 0.00 | 0.00 | 63 | 1011.8 |
| 20260503194427 | 66 | 236 | 5.0 | 13.0 | 0.00 | 0.00 | 0.00 | 64 | 1011.8 |
| 20260503194322 | 65 | 217 | 5.0 | 16.0 | 0.00 | 0.00 | 0.00 | 64 | 1011.8 |
| 20260503194239 | 65 | 285 | 5.0 | 16.0 | 0.00 | 0.00 | 0.00 | 64 | 1011.8 |
| 20260503194222 | 65 | 242 | 5.0 | 16.0 | 0.00 | 0.00 | 0.00 | 63 | 1011.8 |
| 20260503194122 | 65 | 255 | 5.0 | 16.0 | 0.00 | 0.00 | 0.00 | 62 | 1011.8 |
| 20260503194022 | 65 | 226 | 5.0 | 16.0 | 0.00 | 0.00 | 0.00 | 63 | 1011.8 |
| 20260503193919 | 65 | 236 | 5.0 | 16.0 | 0.00 | 0.00 | 0.00 | 63 | 1011.8 |
| 20260503193814 | 65 | 228 | 6.0 | 16.0 | 0.00 | 0.00 | 0.00 | 64 | 1011.8 |
| 20260503193740 | 65 | 300 | 6.0 | 16.0 | 0.00 | 0.00 | 0.00 | 64 | 1011.8 |
| 20260503193713 | 65 | 301 | 6.0 | 16.0 | 0.00 | 0.00 | 0.00 | 64 | 1011.8 |
| 20260503193614 | 65 | 255 | 7.0 | 16.0 | 0.00 | 0.00 | 0.00 | 63 | 1011.9 |
| 20260503193514 | 65 | 248 | 6.0 | 16.0 | 0.00 | 0.00 | 0.00 | 63 | 1011.9 |
| 20260503193413 | 65 | 197 | 6.0 | 16.0 | 0.00 | 0.00 | 0.00 | 62 | 1011.9 |
| 20260503193314 | 65 | 234 | 6.0 | 15.0 | 0.00 | 0.00 | 0.00 | 63 | 1012.0 |
| 20260503193231 | 65 | 203 | 6.0 | 15.0 | 0.00 | 0.00 | 0.00 | 63 | 1012.0 |
| 20260503193213 | 65 | 259 | 6.0 | 15.0 | 0.00 | 0.00 | 0.00 | 63 | 1012.0 |
| 20260503193114 | 65 | 238 | 7.0 | 15.0 | 0.00 | 0.00 | 0.00 | 63 | 1012.0 |
| 20260503193014 | 65 | 259 | 7.0 | 15.0 | 0.00 | 0.00 | 0.00 | 62 | 1012.0 |
| 20260503192913 | 65 | 263 | 6.0 | 15.0 | 0.00 | 0.00 | 0.00 | 63 | 1012.0 |
| 20260503192814 | 65 | 240 | 6.0 | 12.0 | 0.00 | 0.00 | 0.00 | 62 | 1012.0 |
| 20260503192729 | 65 | 238 | 7.0 | 15.0 | 0.00 | 0.00 | 0.00 | 63 | 1012.0 |
| 20260503192712 | 65 | 226 | 7.0 | 15.0 | 0.00 | 0.00 | 0.00 | 63 | 1012.0 |
| 20260503192611 | 65 | 221 | 7.0 | 15.0 | 0.00 | 0.00 | 0.00 | 63 | 1012.0 |
| 20260503192510 | 65 | 166 | 7.0 | 15.0 | 0.00 | 0.00 | 0.00 | 63 | 1012.0 |
| 20260503192456 | 65 | 246 | 6.0 | 15.0 | 0.00 | 0.00 | 0.00 | 64 | 1011.9 |
| 20260503192409 | 65 | 226 | 6.0 | 15.0 | 0.00 | 0.00 | 0.00 | 64 | 1011.9 |
| 20260503192341 | 65 | 190 | 6.0 | 15.0 | 0.00 | 0.00 | 0.00 | 64 | 1012.0 |
| 20260503192208 | 65 | 277 | 6.0 | 15.0 | 0.00 | 0.00 | 0.00 | 64 | 1011.9 |
| 20260503192108 | 64 | 149 | 6.0 | 15.0 | 0.00 | 0.00 | 0.00 | 63 | 1012.0 |
| 20260503192008 | 64 | 242 | 6.0 | 15.0 | 0.00 | 0.00 | 0.00 | 63 | 1012.0 |
| 20260503191907 | 64 | 233 | 5.0 | 15.0 | 0.00 | 0.00 | 0.00 | 63 | 1012.0 |
| 20260503191808 | 65 | 270 | 5.0 | 15.0 | 0.00 | 0.00 | 0.00 | 63 | 1012.0 |
| 20260503191734 | 65 | 253 | 4.0 | 14.0 | 0.00 | 0.00 | 0.00 | 63 | 1012.1 |
| 20260503191707 | 65 | 238 | 4.0 | 14.0 | 0.00 | 0.00 | 0.00 | 63 | 1012.1 |
| 20260503191602 | 65 | 236 | 4.0 | 10.0 | 0.00 | 0.00 | 0.00 | 63 | 1012.1 |
| 20260503191502 | 65 | 225 | 4.0 | 10.0 | 0.00 | 0.00 | 0.00 | 64 | 1012.1 |
| 20260503191451 | 65 | 245 | 4.0 | 11.0 | 0.00 | 0.00 | 0.00 | 64 | 1012.2 |
| 20260503191402 | 65 | 174 | 4.0 | 11.0 | 0.00 | 0.00 | 0.00 | 64 | 1012.1 |
| 20260503191339 | 65 | 233 | 4.0 | 11.0 | 0.00 | 0.00 | 0.00 | 63 | 1012.1 |
| 20260503191200 | 65 | 239 | 4.0 | 11.0 | 0.00 | 0.00 | 0.00 | 64 | 1012.2 |
| 20260503191056 | 65 | 225 | 4.0 | 11.0 | 0.00 | 0.00 | 0.00 | 65 | 1012.1 |
| 20260503190954 | 65 | 234 | 4.0 | 11.0 | 0.00 | 0.00 | 0.00 | 65 | 1012.1 |
| 20260503190854 | 65 | 274 | 4.0 | 11.0 | 0.00 | 0.00 | 0.00 | 65 | 1012.2 |
| 20260503190754 | 64 | 232 | 4.0 | 11.0 | 0.00 | 0.00 | 0.00 | 64 | 1012.1 |
| 20260503190652 | 64 | 273 | 4.0 | 13.0 | 0.00 | 0.00 | 0.00 | 64 | 1012.1 |
| 20260503190550 | 65 | 231 | 4.0 | 13.0 | 0.00 | 0.00 | 0.00 | 64 | 1012.2 |
| 20260503190450 | 65 | 236 | 4.0 | 13.0 | 0.00 | 0.00 | 0.00 | 65 | 1012.1 |
| 20260503190348 | 65 | 239 | 4.0 | 13.0 | 0.00 | 0.00 | 0.00 | 65 | 1012.2 |
| 20260503190248 | 64 | 239 | 4.0 | 13.0 | 0.00 | 0.00 | 0.00 | 65 | 1012.2 |
| 20260503190229 | 64 | 238 | 4.0 | 13.0 | 0.00 | 0.00 | 0.00 | 65 | 1012.2 |
| 20260503190145 | 64 | 226 | 4.0 | 13.0 | 0.00 | 0.00 | 0.00 | 65 | 1012.2 |
| 20260503190040 | 64 | 243 | 4.0 | 13.0 | 0.00 | 0.00 | 0.00 | 65 | 1012.1 |
| 20260503185939 | 64 | 225 | 4.0 | 13.0 | 0.00 | 0.00 | 0.00 | 65 | 1012.2 |
| 20260503185840 | 64 | 184 | 4.0 | 13.0 | 0.00 | 0.00 | 0.00 | 65 | 1012.2 |
| 20260503185738 | 64 | 260 | 4.0 | 16.0 | 0.00 | 0.00 | 0.00 | 66 | 1012.2 |
| 20260503185730 | 64 | 274 | 4.0 | 16.0 | 0.00 | 0.00 | 0.00 | 66 | 1012.2 |
| 20260503185637 | 63 | 310 | 4.0 | 16.0 | 0.00 | 0.00 | 0.00 | 66 | 1012.2 |
| 20260503185531 | 63 | 243 | 4.0 | 16.0 | 0.00 | 0.00 | 0.00 | 66 | 1012.2 |
| 20260503185432 | 63 | 238 | 4.0 | 16.0 | 0.00 | 0.00 | 0.00 | 66 | 1012.2 |
| 20260503185331 | 63 | 158 | 4.0 | 16.0 | 0.00 | 0.00 | 0.00 | 68 | 1012.3 |
| 20260503185236 | 63 | 195 | 5.0 | 16.0 | 0.00 | 0.00 | 0.00 | 67 | 1012.2 |
| 20260503185230 | 63 | 217 | 5.0 | 16.0 | 0.00 | 0.00 | 0.00 | 67 | 1012.2 |
| 20260503185130 | 63 | 239 | 5.0 | 16.0 | 0.00 | 0.00 | 0.00 | 67 | 1012.2 |
| 20260503185023 | 62 | 250 | 6.0 | 16.0 | 0.00 | 0.00 | 0.00 | 68 | 1012.3 |
| 20260503184925 | 62 | 198 | 6.0 | 16.0 | 0.00 | 0.00 | 0.00 | 67 | 1012.3 |
| 20260503184824 | 62 | 250 | 5.0 | 16.0 | 0.00 | 0.00 | 0.00 | 67 | 1012.4 |
| 20260503184732 | 62 | 281 | 6.0 | 13.0 | 0.00 | 0.00 | 0.00 | 67 | 1012.3 |
| 20260503184725 | 62 | 242 | 6.0 | 13.0 | 0.00 | 0.00 | 0.00 | 67 | 1012.3 |
| 20260503184623 | 62 | 221 | 6.0 | 14.0 | 0.00 | 0.00 | 0.00 | 67 | 1012.3 |
| 20260503184520 | 62 | 215 | 6.0 | 14.0 | 0.00 | 0.00 | 0.00 | 68 | 1012.3 |
| 20260503184418 | 62 | 232 | 7.0 | 14.0 | 0.00 | 0.00 | 0.00 | 68 | 1012.3 |
| 20260503184318 | 62 | 232 | 6.0 | 14.0 | 0.00 | 0.00 | 0.00 | 68 | 1012.3 |
| 20260503184231 | 62 | 218 | 6.0 | 14.0 | 0.00 | 0.00 | 0.00 | 68 | 1012.3 |
| 20260503184218 | 62 | 248 | 6.0 | 14.0 | 0.00 | 0.00 | 0.00 | 68 | 1012.3 |
| 20260503184115 | 62 | 248 | 6.0 | 14.0 | 0.00 | 0.00 | 0.00 | 67 | 1012.3 |
| 20260503184010 | 62 | 255 | 6.0 | 14.0 | 0.00 | 0.00 | 0.00 | 68 | 1012.3 |
| 20260503183949 | 62 | 281 | 7.0 | 15.0 | 0.00 | 0.00 | 0.00 | 67 | 1012.3 |
| 20260503183909 | 62 | 226 | 7.0 | 15.0 | 0.00 | 0.00 | 0.00 | 68 | 1012.3 |
| 20260503183839 | 62 | 242 | 7.0 | 15.0 | 0.00 | 0.00 | 0.00 | 67 | 1012.3 |
| 20260503183708 | 62 | 194 | 7.0 | 15.0 | 0.00 | 0.00 | 0.00 | 67 | 1012.3 |
| 20260503183607 | 62 | 236 | 7.0 | 15.0 | 0.00 | 0.00 | 0.00 | 67 | 1012.3 |
| 20260503183501 | 62 | 162 | 7.0 | 15.0 | 0.00 | 0.00 | 0.00 | 67 | 1012.2 |
| 20260503183402 | 62 | 243 | 7.0 | 15.0 | 0.00 | 0.00 | 0.00 | 68 | 1012.3 |
| 20260503183302 | 62 | 243 | 7.0 | 15.0 | 0.00 | 0.00 | 0.00 | 68 | 1012.3 |
| 20260503183229 | 62 | 232 | 6.0 | 15.0 | 0.00 | 0.00 | 0.00 | 68 | 1012.2 |
| 20260503183201 | 62 | 211 | 6.0 | 15.0 | 0.00 | 0.00 | 0.00 | 68 | 1012.2 |
| 20260503183100 | 62 | 262 | 6.0 | 15.0 | 0.00 | 0.00 | 0.00 | 69 | 1012.3 |
| 20260503182954 | 62 | 232 | 6.0 | 15.0 | 0.00 | 0.00 | 0.00 | 68 | 1012.3 |
| 20260503182853 | 62 | 188 | 6.0 | 13.0 | 0.00 | 0.00 | 0.00 | 68 | 1012.3 |
| 20260503182754 | 62 | 248 | 6.0 | 13.0 | 0.00 | 0.00 | 0.00 | 68 | 1012.3 |
| 20260503182730 | 62 | 222 | 6.0 | 13.0 | 0.00 | 0.00 | 0.00 | 68 | 1012.3 |
| 20260503182654 | 62 | 240 | 6.0 | 13.0 | 0.00 | 0.00 | 0.00 | 69 | 1012.3 |
| 20260503182553 | 62 | 241 | 6.0 | 13.0 | 0.00 | 0.00 | 0.00 | 69 | 1012.3 |
| 20260503182450 | 62 | 264 | 6.0 | 13.0 | 0.00 | 0.00 | 0.00 | 70 | 1012.3 |
| 20260503182348 | 62 | 231 | 7.0 | 13.0 | 0.00 | 0.00 | 0.00 | 70 | 1012.3 |
| 20260503182247 | 61 | 123 | 7.0 | 13.0 | 0.00 | 0.00 | 0.00 | 70 | 1012.3 |
| 20260503182229 | 61 | 126 | 7.0 | 13.0 | 0.00 | 0.00 | 0.00 | 70 | 1012.3 |
| 20260503182148 | 61 | 143 | 7.0 | 13.0 | 0.00 | 0.00 | 0.00 | 69 | 1012.3 |
| 20260503182044 | 61 | 228 | 7.0 | 15.0 | 0.00 | 0.00 | 0.00 | 69 | 1012.3 |
| 20260503181942 | 61 | 204 | 8.0 | 15.0 | 0.00 | 0.00 | 0.00 | 69 | 1012.3 |
| 20260503181842 | 61 | 216 | 8.0 | 15.0 | 0.00 | 0.00 | 0.00 | 69 | 1012.3 |
| 20260503181741 | 61 | 214 | 7.0 | 15.0 | 0.00 | 0.00 | 0.00 | 70 | 1012.3 |
| 20260503181722 | 61 | 219 | 7.0 | 15.0 | 0.00 | 0.00 | 0.00 | 70 | 1012.3 |
| 20260503181642 | 61 | 246 | 7.0 | 15.0 | 0.00 | 0.00 | 0.00 | 69 | 1012.3 |
| 20260503181541 | 61 | 222 | 7.0 | 15.0 | 0.00 | 0.00 | 0.00 | 69 | 1012.3 |
| 20260503181436 | 61 | 200 | 7.0 | 16.0 | 0.00 | 0.00 | 0.00 | 70 | 1012.3 |
| 20260503181336 | 61 | 262 | 7.0 | 16.0 | 0.00 | 0.00 | 0.00 | 70 | 1012.4 |
| 20260503181236 | 61 | 256 | 7.0 | 16.0 | 0.00 | 0.00 | 0.00 | 69 | 1012.4 |
| 20260503181216 | 61 | 273 | 7.0 | 16.0 | 0.00 | 0.00 | 0.00 | 69 | 1012.4 |
| 20260503181136 | 61 | 203 | 7.0 | 16.0 | 0.00 | 0.00 | 0.00 | 70 | 1012.3 |
| 20260503181034 | 61 | 257 | 7.0 | 16.0 | 0.00 | 0.00 | 0.00 | 69 | 1012.3 |
| 20260503180928 | 61 | 274 | 6.0 | 16.0 | 0.00 | 0.00 | 0.00 | 69 | 1012.3 |
| 20260503180827 | 61 | 236 | 6.0 | 16.0 | 0.00 | 0.00 | 0.00 | 69 | 1012.3 |
| 20260503180729 | 61 | 224 | 5.0 | 16.0 | 0.00 | 0.00 | 0.00 | 69 | 1012.4 |
| 20260503180714 | 61 | 230 | 5.0 | 16.0 | 0.00 | 0.00 | 0.00 | 69 | 1012.4 |
| 20260503180628 | 61 | 232 | 5.0 | 16.0 | 0.00 | 0.00 | 0.00 | 70 | 1012.3 |
| 20260503180528 | 61 | 211 | 5.0 | 16.0 | 0.00 | 0.00 | 0.00 | 69 | 1012.3 |
| 20260503180424 | 61 | 232 | 4.0 | 13.0 | 0.00 | 0.00 | 0.00 | 69 | 1012.3 |
| 20260503180324 | 61 | 212 | 4.0 | 13.0 | 0.00 | 0.00 | 0.00 | 70 | 1012.2 |
| 20260503180227 | 61 | 266 | 5.0 | 16.0 | 0.00 | 0.00 | 0.00 | 70 | 1012.2 |
| 20260503180216 | 61 | 273 | 5.0 | 16.0 | 0.00 | 0.00 | 0.00 | 70 | 1012.2 |
| 20260503180124 | 61 | 236 | 5.0 | 16.0 | 0.00 | 0.00 | 0.00 | 70 | 1012.3 |
| 20260503180025 | 61 | 229 | 5.0 | 16.0 | 0.00 | 0.00 | 0.00 | 71 | 1012.3 |
| 20260503175924 | 61 | 242 | 5.0 | 16.0 | 0.00 | 0.00 | 0.00 | 70 | 1012.3 |
| 20260503175822 | 61 | 218 | 5.0 | 16.0 | 0.00 | 0.00 | 0.00 | 70 | 1012.3 |
| 20260503175725 | 61 | 228 | 5.0 | 16.0 | 0.00 | 0.00 | 0.00 | 71 | 1012.4 |
| 20260503175714 | 61 | 262 | 5.0 | 16.0 | 0.00 | 0.00 | 0.00 | 71 | 1012.4 |
| 20260503175622 | 61 | 243 | 5.0 | 16.0 | 0.00 | 0.00 | 0.00 | 71 | 1012.3 |
| 20260503175522 | 61 | 212 | 5.0 | 16.0 | 0.00 | 0.00 | 0.00 | 71 | 1012.3 |
| 20260503175421 | 61 | 208 | 5.0 | 16.0 | 0.00 | 0.00 | 0.00 | 71 | 1012.3 |
| 20260503175322 | 61 | 238 | 5.0 | 16.0 | 0.00 | 0.00 | 0.00 | 70 | 1012.4 |
| 20260503175224 | 61 | 250 | 5.0 | 13.0 | 0.00 | 0.00 | 0.00 | 70 | 1012.4 |
| 20260503175214 | 61 | 218 | 5.0 | 13.0 | 0.00 | 0.00 | 0.00 | 71 | 1012.4 |
| 20260503175121 | 61 | 250 | 5.0 | 11.0 | 0.00 | 0.00 | 0.00 | 71 | 1012.4 |
| 20260503175022 | 61 | 274 | 5.0 | 11.0 | 0.00 | 0.00 | 0.00 | 71 | 1012.4 |
| 20260503174921 | 61 | 236 | 5.0 | 11.0 | 0.00 | 0.00 | 0.00 | 71 | 1012.4 |
| 20260503174821 | 61 | 239 | 5.0 | 11.0 | 0.00 | 0.00 | 0.00 | 72 | 1012.4 |
| 20260503174722 | 60 | 269 | 6.0 | 11.0 | 0.00 | 0.00 | 0.00 | 71 | 1012.4 |
| 20260503174718 | 60 | 270 | 6.0 | 11.0 | 0.00 | 0.00 | 0.00 | 71 | 1012.4 |
| 20260503174616 | 60 | 243 | 6.0 | 11.0 | 0.00 | 0.00 | 0.00 | 72 | 1012.4 |
| 20260503174516 | 60 | 221 | 6.0 | 11.0 | 0.00 | 0.00 | 0.00 | 72 | 1012.5 |
| 20260503174441 | 60 | 224 | 6.0 | 13.0 | 0.00 | 0.00 | 0.00 | 71 | 1012.5 |
| 20260503174416 | 60 | 228 | 6.0 | 11.0 | 0.00 | 0.00 | 0.00 | 72 | 1012.5 |
| 20260503174325 | 60 | 221 | 6.0 | 11.0 | 0.00 | 0.00 | 0.00 | 72 | 1012.5 |
| 20260503174207 | 60 | 221 | 6.0 | 13.0 | 0.00 | 0.00 | 0.00 | 71 | 1012.5 |
| 20260503174108 | 60 | 242 | 6.0 | 13.0 | 0.00 | 0.00 | 0.00 | 71 | 1012.4 |
| 20260503174008 | 60 | 248 | 5.0 | 13.0 | 0.00 | 0.00 | 0.00 | 71 | 1012.4 |
| 20260503173907 | 60 | 177 | 5.0 | 13.0 | 0.00 | 0.00 | 0.00 | 72 | 1012.5 |
| 20260503173807 | 60 | 195 | 5.0 | 13.0 | 0.00 | 0.00 | 0.00 | 71 | 1012.5 |
| 20260503173714 | 60 | 208 | 5.0 | 13.0 | 0.00 | 0.00 | 0.00 | 72 | 1012.5 |
| 20260503173708 | 60 | 214 | 5.0 | 13.0 | 0.00 | 0.00 | 0.00 | 72 | 1012.5 |
| 20260503173608 | 60 | 219 | 5.0 | 13.0 | 0.00 | 0.00 | 0.00 | 72 | 1012.5 |
| 20260503173507 | 60 | 229 | 5.0 | 15.0 | 0.00 | 0.00 | 0.00 | 72 | 1012.4 |
| 20260503173408 | 60 | 197 | 6.0 | 16.0 | 0.00 | 0.00 | 0.00 | 72 | 1012.4 |
| 20260503173308 | 60 | 242 | 6.0 | 18.0 | 0.00 | 0.00 | 0.00 | 73 | 1012.4 |
| 20260503173215 | 60 | 290 | 7.0 | 18.0 | 0.00 | 0.00 | 0.00 | 73 | 1012.5 |
| 20260503173208 | 60 | 238 | 7.0 | 18.0 | 0.00 | 0.00 | 0.00 | 73 | 1012.5 |
| 20260503173107 | 60 | 183 | 7.0 | 18.0 | 0.00 | 0.00 | 0.00 | 73 | 1012.5 |
| 20260503173007 | 60 | 214 | 7.0 | 18.0 | 0.00 | 0.00 | 0.00 | 73 | 1012.4 |
| 20260503172906 | 60 | 200 | 6.0 | 18.0 | 0.00 | 0.00 | 0.00 | 72 | 1012.4 |
| 20260503172804 | 59 | 245 | 6.0 | 18.0 | 0.00 | 0.00 | 0.00 | 73 | 1012.4 |
| 20260503172715 | 59 | 239 | 6.0 | 18.0 | 0.00 | 0.00 | 0.00 | 73 | 1012.4 |
| 20260503172703 | 59 | 287 | 6.0 | 18.0 | 0.00 | 0.00 | 0.00 | 73 | 1012.4 |
| 20260503172601 | 59 | 228 | 5.0 | 18.0 | 0.00 | 0.00 | 0.00 | 72 | 1012.4 |
| 20260503172502 | 59 | 281 | 5.0 | 18.0 | 0.00 | 0.00 | 0.00 | 72 | 1012.4 |
| 20260503172402 | 60 | 243 | 5.0 | 17.0 | 0.00 | 0.00 | 0.00 | 73 | 1012.4 |
| 20260503172305 | 60 | 240 | 5.0 | 13.0 | 0.00 | 0.00 | 0.00 | 73 | 1012.4 |
| 20260503172214 | 60 | 235 | 5.0 | 15.0 | 0.00 | 0.00 | 0.00 | 74 | 1012.4 |
| 20260503172202 | 60 | 236 | 5.0 | 15.0 | 0.00 | 0.00 | 0.00 | 74 | 1012.4 |
| 20260503172101 | 60 | 252 | 5.0 | 15.0 | 0.00 | 0.00 | 0.00 | 73 | 1012.4 |
| 20260503171956 | 59 | 257 | 6.0 | 15.0 | 0.00 | 0.00 | 0.00 | 74 | 1012.4 |
| 20260503171934 | 59 | 222 | 6.0 | 15.0 | 0.00 | 0.00 | 0.00 | 74 | 1012.3 |
| 20260503171856 | 59 | 217 | 6.0 | 15.0 | 0.00 | 0.00 | 0.00 | 74 | 1012.3 |
| 20260503171826 | 59 | 283 | 6.0 | 15.0 | 0.00 | 0.00 | 0.00 | 74 | 1012.3 |
| 20260503171700 | 59 | 231 | 6.0 | 14.0 | 0.00 | 0.00 | 0.00 | 73 | 1012.3 |
| 20260503171656 | 59 | 221 | 6.0 | 15.0 | 0.00 | 0.00 | 0.00 | 74 | 1012.3 |
| 20260503171557 | 59 | 273 | 6.0 | 15.0 | 0.00 | 0.00 | 0.00 | 74 | 1012.4 |
| 20260503171549 | 59 | 238 | 6.0 | 15.0 | 0.00 | 0.00 | 0.00 | 73 | 1012.4 |
| 20260503171353 | 59 | 250 | 6.0 | 15.0 | 0.00 | 0.00 | 0.00 | 73 | 1012.3 |
| 20260503171326 | 59 | 211 | 6.0 | 14.0 | 0.00 | 0.00 | 0.00 | 73 | 1012.3 |
| 20260503171153 | 59 | 230 | 6.0 | 14.0 | 0.00 | 0.00 | 0.00 | 73 | 1012.3 |
| 20260503171053 | 60 | 233 | 5.0 | 14.0 | 0.00 | 0.00 | 0.00 | 73 | 1012.3 |
| 20260503170953 | 60 | 250 | 5.0 | 11.0 | 0.00 | 0.00 | 0.00 | 74 | 1012.3 |
| 20260503170852 | 59 | 143 | 5.0 | 11.0 | 0.00 | 0.00 | 0.00 | 75 | 1012.3 |
| 20260503170752 | 59 | 219 | 5.0 | 12.0 | 0.00 | 0.00 | 0.00 | 74 | 1012.2 |
| 20260503170713 | 59 | 180 | 5.0 | 12.0 | 0.00 | 0.00 | 0.00 | 74 | 1012.2 |
| 20260503170651 | 59 | 197 | 5.0 | 12.0 | 0.00 | 0.00 | 0.00 | 75 | 1012.2 |
| 20260503170550 | 59 | 236 | 5.0 | 12.0 | 0.00 | 0.00 | 0.00 | 75 | 1012.2 |
| 20260503170449 | 59 | 224 | 5.0 | 12.0 | 0.00 | 0.00 | 0.00 | 75 | 1012.1 |
| 20260503170348 | 59 | 253 | 4.0 | 12.0 | 0.00 | 0.00 | 0.00 | 75 | 1012.2 |
| 20260503170249 | 59 | 228 | 4.0 | 12.0 | 0.00 | 0.00 | 0.00 | 75 | 1012.2 |
| 20260503170212 | 59 | 243 | 4.0 | 12.0 | 0.00 | 0.00 | 0.00 | 75 | 1012.1 |
| 20260503170149 | 59 | 161 | 4.0 | 12.0 | 0.00 | 0.00 | 0.00 | 75 | 1012.1 |
| 20260503160139 | 57 | 225 | 4.0 | 10.0 | 0.00 | 0.00 | 0.00 | 79 | 1011.6 |
| 20260503160111 | 57 | 236 | 4.0 | 10.0 | 0.00 | 0.00 | 0.00 | 79 | 1011.6 |
| 20260503150959 | 56 | 205 | 3.0 | 9.0 | 0.00 | 0.00 | 0.00 | 82 | 1011.5 |
| 20260503150941 | 56 | 208 | 4.0 | 9.0 | 0.00 | 0.00 | 0.00 | 82 | 1011.5 |
| 20260503150839 | 56 | 230 | 4.0 | 9.0 | 0.00 | 0.00 | 0.00 | 82 | 1011.4 |
| 20260503150738 | 56 | 235 | 3.0 | 9.0 | 0.00 | 0.00 | 0.00 | 82 | 1011.4 |
| 20260503150636 | 56 | 188 | 3.0 | 9.0 | 0.00 | 0.00 | 0.00 | 82 | 1011.4 |
| 20260503150535 | 56 | 245 | 3.0 | 8.0 | 0.00 | 0.00 | 0.00 | 83 | 1011.5 |
| 20260503150452 | 55 | 194 | 3.0 | 7.0 | 0.00 | 0.00 | 0.00 | 83 | 1011.5 |
| 20260503150432 | 55 | 259 | 3.0 | 7.0 | 0.00 | 0.00 | 0.00 | 83 | 1011.4 |
| 20260503150333 | 55 | 163 | 3.0 | 7.0 | 0.00 | 0.00 | 0.00 | 83 | 1011.4 |
| 20260503150232 | 55 | 257 | 4.0 | 7.0 | 0.00 | 0.00 | 0.00 | 83 | 1011.4 |
| 20260503150215 | 55 | 239 | 4.0 | 8.0 | 0.00 | 0.00 | 0.00 | 83 | 1011.3 |
| 20260503150129 | 55 | 211 | 4.0 | 7.0 | 0.00 | 0.00 | 0.00 | 83 | 1011.4 |
| 20260503140312 | 54 | 226 | 3.0 | 9.0 | 0.00 | 0.00 | 0.00 | 85 | 1010.3 |
| 20260503140112 | 54 | 248 | 3.0 | 9.0 | 0.00 | 0.00 | 0.00 | 85 | 1010.2 |
| 20260503131406 | 54 | 152 | 3.0 | 9.0 | 0.00 | 0.00 | 0.00 | 86 | 1009.9 |
| 20260503131327 | 54 | 203 | 3.0 | 9.0 | 0.00 | 0.00 | 0.00 | 86 | 1009.8 |
| 20260503131229 | 54 | 200 | 3.0 | 9.0 | 0.00 | 0.00 | 0.00 | 86 | 1009.8 |
| 20260503131128 | 54 | 236 | 3.0 | 9.0 | 0.00 | 0.00 | 0.00 | 86 | 1009.8 |
| 20260503131028 | 54 | 246 | 3.0 | 9.0 | 0.00 | 0.00 | 0.00 | 86 | 1009.8 |
| 20260503130928 | 54 | 225 | 3.0 | 8.0 | 0.00 | 0.00 | 0.00 | 86 | 1009.8 |
| 20260503130858 | 54 | 225 | 3.0 | 8.0 | 0.00 | 0.00 | 0.00 | 86 | 1009.8 |
| 20260503130826 | 54 | 193 | 3.0 | 8.0 | 0.00 | 0.00 | 0.00 | 86 | 1009.7 |
| 20260503130726 | 54 | 217 | 3.0 | 8.0 | 0.00 | 0.00 | 0.00 | 86 | 1009.7 |
| 20260503130626 | 54 | 198 | 3.0 | 8.0 | 0.00 | 0.00 | 0.00 | 86 | 1009.7 |
| 20260503130526 | 54 | 193 | 3.0 | 8.0 | 0.00 | 0.00 | 0.00 | 86 | 1009.7 |
| 20260503130424 | 54 | 191 | 3.0 | 8.0 | 0.00 | 0.00 | 0.00 | 86 | 1009.7 |
| 20260503130353 | 54 | 193 | 3.0 | 8.0 | 0.00 | 0.00 | 0.00 | 86 | 1009.7 |
| 20260503130324 | 54 | 235 | 3.0 | 8.0 | 0.00 | 0.00 | 0.00 | 86 | 1009.6 |
| 20260503130224 | 54 | 195 | 3.0 | 8.0 | 0.00 | 0.00 | 0.00 | 86 | 1009.7 |
| 20260503120132 | 54 | 225 | 2.0 | 7.0 | 0.00 | 0.00 | 0.00 | 86 | 1009.5 |
| 20260503110805 | 54 | 250 | 3.0 | 10.0 | 0.00 | 0.00 | 0.00 | 86 | 1009.5 |
| 20260503110744 | 54 | 260 | 3.0 | 8.0 | 0.00 | 0.00 | 0.00 | 86 | 1009.6 |
| 20260503110643 | 54 | 219 | 3.0 | 8.0 | 0.00 | 0.00 | 0.00 | 86 | 1009.6 |
| 20260503110544 | 54 | 214 | 3.0 | 8.0 | 0.00 | 0.00 | 0.00 | 86 | 1009.6 |
| 20260503110443 | 54 | 200 | 3.0 | 8.0 | 0.00 | 0.00 | 0.00 | 86 | 1009.6 |
| 20260503110338 | 54 | 226 | 3.0 | 8.0 | 0.00 | 0.00 | 0.00 | 86 | 1009.6 |
| 20260503110259 | 54 | 218 | 3.0 | 8.0 | 0.00 | 0.00 | 0.00 | 86 | 1009.6 |
| 20260503110238 | 54 | 259 | 3.0 | 8.0 | 0.00 | 0.00 | 0.00 | 86 | 1009.5 |
| 20260503110138 | 54 | 221 | 3.0 | 8.0 | 0.00 | 0.00 | 0.00 | 86 | 1009.6 |
| 20260503100126 | 54 | 230 | 3.0 | 7.0 | 0.00 | 0.00 | 0.00 | 87 | 1009.3 |
| 20260503090420 | 54 | 235 | 3.0 | 8.0 | 0.00 | 0.00 | 0.00 | 87 | 1009.6 |
| 20260503090320 | 54 | 250 | 2.0 | 8.0 | 0.00 | 0.00 | 0.00 | 87 | 1009.7 |
| 20260503090220 | 54 | 219 | 2.0 | 8.0 | 0.00 | 0.00 | 0.00 | 87 | 1009.6 |
| 20260503090210 | 54 | 198 | 2.0 | 8.0 | 0.00 | 0.00 | 0.00 | 87 | 1009.6 |
| 20260503090113 | 54 | 243 | 2.0 | 8.0 | 0.00 | 0.00 | 0.00 | 87 | 1009.7 |
| 20260503081623 | 54 | 232 | 1.0 | 5.0 | 0.00 | 0.00 | 0.00 | 86 | 1010.1 |
| 20260503081517 | 54 | 232 | 1.0 | 5.0 | 0.00 | 0.00 | 0.00 | 86 | 1010.2 |
| 20260503081416 | 54 | 231 | 1.0 | 5.0 | 0.00 | 0.00 | 0.00 | 86 | 1010.2 |
| 20260503081316 | 54 | 248 | 1.0 | 5.0 | 0.00 | 0.00 | 0.00 | 86 | 1010.2 |
| 20260503081215 | 54 | 231 | 1.0 | 4.0 | 0.00 | 0.00 | 0.00 | 86 | 1010.2 |
| 20260503081118 | 54 | 222 | 2.0 | 4.0 | 0.00 | 0.00 | 0.00 | 86 | 1010.2 |
| 20260503081012 | 54 | 222 | 2.0 | 4.0 | 0.00 | 0.00 | 0.00 | 86 | 1010.2 |
| 20260503080911 | 54 | 223 | 2.0 | 4.0 | 0.00 | 0.00 | 0.00 | 86 | 1010.2 |
| 20260503080834 | 55 | 217 | 2.0 | 4.0 | 0.00 | 0.00 | 0.00 | 86 | 1010.2 |
| 20260503080810 | 55 | 203 | 2.0 | 4.0 | 0.00 | 0.00 | 0.00 | 86 | 1010.2 |
| 20260503080729 | 55 | 161 | 2.0 | 4.0 | 0.00 | 0.00 | 0.00 | 86 | 1010.2 |
| 20260503080715 | 55 | 217 | 2.0 | 4.0 | 0.00 | 0.00 | 0.00 | 86 | 1010.2 |
| 20260503080503 | 55 | 243 | 2.0 | 4.0 | 0.00 | 0.00 | 0.00 | 86 | 1010.2 |
| 20260503080404 | 55 | 221 | 2.0 | 4.0 | 0.00 | 0.00 | 0.00 | 86 | 1010.2 |
| 20260503080304 | 54 | 204 | 2.0 | 4.0 | 0.00 | 0.00 | 0.00 | 86 | 1010.2 |
| 20260503080204 | 55 | 238 | 1.0 | 4.0 | 0.00 | 0.00 | 0.00 | 86 | 1010.2 |
| 20260503080116 | 55 | 226 | 1.0 | 4.0 | 0.00 | 0.00 | 0.00 | 86 | 1010.2 |
| 20260503072822 | 55 | 224 | 0.0 | 3.0 | 0.00 | 0.00 | 0.00 | 86 | 1010.3 |
| 20260503072722 | 55 | 224 | 0.0 | 3.0 | 0.00 | 0.00 | 0.00 | 86 | 1010.3 |
| 20260503072622 | 55 | 203 | 1.0 | 3.0 | 0.00 | 0.00 | 0.00 | 86 | 1010.3 |
| 20260503072523 | 55 | 203 | 1.0 | 4.0 | 0.00 | 0.00 | 0.00 | 86 | 1010.3 |
| 20260503072418 | 55 | 203 | 1.0 | 4.0 | 0.00 | 0.00 | 0.00 | 86 | 1010.3 |
| 20260503072316 | 55 | 156 | 1.0 | 6.0 | 0.00 | 0.00 | 0.00 | 85 | 1010.3 |
| 20260503072215 | 55 | 218 | 1.0 | 6.0 | 0.00 | 0.00 | 0.00 | 85 | 1010.3 |
| 20260503072116 | 55 | 224 | 1.0 | 6.0 | 0.00 | 0.00 | 0.00 | 85 | 1010.3 |
| 20260503072017 | 55 | 239 | 1.0 | 6.0 | 0.00 | 0.00 | 0.00 | 85 | 1010.3 |
| 20260503071912 | 55 | 239 | 2.0 | 6.0 | 0.00 | 0.00 | 0.00 | 85 | 1010.4 |
| 20260503071810 | 55 | 239 | 2.0 | 6.0 | 0.00 | 0.00 | 0.00 | 85 | 1010.3 |
| 20260503071734 | 55 | 225 | 2.0 | 6.0 | 0.00 | 0.00 | 0.00 | 85 | 1010.4 |
| 20260503071709 | 55 | 239 | 2.0 | 6.0 | 0.00 | 0.00 | 0.00 | 85 | 1010.4 |
| 20260503071626 | 55 | 150 | 2.0 | 6.0 | 0.00 | 0.00 | 0.00 | 85 | 1010.4 |
| 20260503071616 | 55 | 225 | 2.0 | 6.0 | 0.00 | 0.00 | 0.00 | 85 | 1010.4 |
| 20260503071407 | 55 | 246 | 2.0 | 6.0 | 0.00 | 0.00 | 0.00 | 85 | 1010.3 |
| 20260503071308 | 55 | 229 | 2.0 | 6.0 | 0.00 | 0.00 | 0.00 | 85 | 1010.4 |
| 20260503071208 | 55 | 193 | 2.0 | 6.0 | 0.00 | 0.00 | 0.00 | 85 | 1010.4 |
| 20260503071106 | 55 | 233 | 2.0 | 6.0 | 0.00 | 0.00 | 0.00 | 85 | 1010.4 |
| 20260503071011 | 55 | 240 | 2.0 | 5.0 | 0.00 | 0.00 | 0.00 | 85 | 1010.4 |
| 20260503071001 | 55 | 238 | 2.0 | 5.0 | 0.00 | 0.00 | 0.00 | 85 | 1010.4 |
| 20260503070906 | 55 | 230 | 2.0 | 4.0 | 0.00 | 0.00 | 0.00 | 85 | 1010.4 |
| 20260503070804 | 55 | 212 | 2.0 | 4.0 | 0.00 | 0.00 | 0.00 | 85 | 1010.5 |
| 20260503070739 | 55 | 217 | 2.0 | 4.0 | 0.00 | 0.00 | 0.00 | 85 | 1010.6 |
| 20260503070704 | 55 | 234 | 2.0 | 4.0 | 0.00 | 0.00 | 0.00 | 85 | 1010.5 |
| 20260503070618 | 55 | 235 | 2.0 | 4.0 | 0.00 | 0.00 | 0.00 | 85 | 1010.5 |
| 20260503070501 | 55 | 217 | 2.0 | 4.0 | 0.00 | 0.00 | 0.00 | 85 | 1010.6 |
| 20260503070402 | 55 | 238 | 1.0 | 4.0 | 0.00 | 0.00 | 0.00 | 85 | 1010.5 |
| 20260503070300 | 55 | 232 | 1.0 | 4.0 | 0.00 | 0.00 | 0.00 | 85 | 1010.5 |
| 20260503070200 | 55 | 215 | 1.0 | 4.0 | 0.00 | 0.00 | 0.00 | 85 | 1010.6 |
| 20260503060328 | 56 | 239 | 1.0 | 5.0 | 0.00 | 0.00 | 0.00 | 84 | 1010.6 |
| 20260503060229 | 56 | 207 | 1.0 | 6.0 | 0.00 | 0.00 | 0.00 | 84 | 1010.5 |
| 20260503060128 | 56 | 225 | 1.0 | 6.0 | 0.00 | 0.00 | 0.00 | 84 | 1010.6 |
| 20260503055124 | 56 | 243 | 2.0 | 8.0 | 0.00 | 0.00 | 0.00 | 83 | 1010.7 |
| 20260503055109 | 56 | 239 | 2.0 | 8.0 | 0.00 | 0.00 | 0.00 | 83 | 1010.6 |
| 20260503054916 | 56 | 221 | 2.0 | 8.0 | 0.00 | 0.00 | 0.00 | 83 | 1010.6 |
| 20260503054816 | 56 | 218 | 3.0 | 8.0 | 0.00 | 0.00 | 0.00 | 83 | 1010.6 |
| 20260503054720 | 56 | 252 | 2.0 | 6.0 | 0.00 | 0.00 | 0.00 | 83 | 1010.6 |
| 20260503054712 | 56 | 231 | 3.0 | 8.0 | 0.00 | 0.00 | 0.00 | 83 | 1010.6 |
| 20260503054609 | 56 | 284 | 3.0 | 8.0 | 0.00 | 0.00 | 0.00 | 83 | 1010.6 |
| 20260503054601 | 56 | 210 | 2.0 | 8.0 | 0.00 | 0.00 | 0.00 | 83 | 1010.6 |
| 20260503054410 | 56 | 212 | 3.0 | 8.0 | 0.00 | 0.00 | 0.00 | 83 | 1010.6 |
| 20260503054310 | 56 | 259 | 3.0 | 8.0 | 0.00 | 0.00 | 0.00 | 83 | 1010.6 |
| 20260503054212 | 56 | 263 | 3.0 | 8.0 | 0.00 | 0.00 | 0.00 | 83 | 1010.7 |
| 20260503054204 | 56 | 257 | 3.0 | 8.0 | 0.00 | 0.00 | 0.00 | 83 | 1010.6 |
| 20260503054108 | 56 | 233 | 3.0 | 8.0 | 0.00 | 0.00 | 0.00 | 83 | 1010.6 |
| 20260503054056 | 56 | 217 | 3.0 | 8.0 | 0.00 | 0.00 | 0.00 | 83 | 1010.7 |
| 20260503053904 | 56 | 98 | 3.0 | 8.0 | 0.00 | 0.00 | 0.00 | 83 | 1010.7 |
| 20260503053804 | 56 | 158 | 4.0 | 8.0 | 0.00 | 0.00 | 0.00 | 83 | 1010.7 |
| 20260503053702 | 56 | 170 | 4.0 | 8.0 | 0.00 | 0.00 | 0.00 | 83 | 1010.6 |
| 20260503053602 | 56 | 250 | 4.0 | 8.0 | 0.00 | 0.00 | 0.00 | 83 | 1010.6 |
| 20260503053503 | 56 | 257 | 4.0 | 8.0 | 0.00 | 0.00 | 0.00 | 83 | 1010.6 |
| 20260503053439 | 56 | 248 | 3.0 | 8.0 | 0.00 | 0.00 | 0.00 | 83 | 1010.6 |
| 20260503053401 | 56 | 232 | 3.0 | 8.0 | 0.00 | 0.00 | 0.00 | 83 | 1010.6 |
| 20260503053258 | 56 | 208 | 3.0 | 8.0 | 0.00 | 0.00 | 0.00 | 83 | 1010.6 |
| 20260503053153 | 56 | 273 | 3.0 | 8.0 | 0.00 | 0.00 | 0.00 | 83 | 1010.6 |
| 20260503053132 | 56 | 217 | 2.0 | 10.0 | 0.00 | 0.00 | 0.00 | 83 | 1010.6 |
| 20260503053054 | 56 | 236 | 3.0 | 8.0 | 0.00 | 0.00 | 0.00 | 83 | 1010.6 |
| 20260503053031 | 56 | 232 | 2.0 | 8.0 | 0.00 | 0.00 | 0.00 | 83 | 1010.6 |
| 20260503053020 | 56 | 238 | 2.0 | 8.0 | 0.00 | 0.00 | 0.00 | 83 | 1010.5 |
| 20260503052855 | 56 | 243 | 2.0 | 8.0 | 0.00 | 0.00 | 0.00 | 82 | 1010.5 |
| 20260503052800 | 56 | 240 | 2.0 | 8.0 | 0.00 | 0.00 | 0.00 | 83 | 1010.6 |
| 20260503052646 | 56 | 226 | 2.0 | 10.0 | 0.00 | 0.00 | 0.00 | 83 | 1010.6 |
| 20260503052546 | 56 | 212 | 2.0 | 10.0 | 0.00 | 0.00 | 0.00 | 83 | 1010.7 |
| 20260503052537 | 56 | 217 | 2.0 | 10.0 | 0.00 | 0.00 | 0.00 | 83 | 1010.6 |
| 20260503052346 | 56 | 215 | 2.0 | 10.0 | 0.00 | 0.00 | 0.00 | 83 | 1010.6 |
| 20260503052246 | 56 | 215 | 2.0 | 10.0 | 0.00 | 0.00 | 0.00 | 82 | 1010.6 |
| 20260503052142 | 56 | 233 | 2.0 | 10.0 | 0.00 | 0.00 | 0.00 | 82 | 1010.5 |
| 20260503052040 | 56 | 231 | 2.0 | 10.0 | 0.00 | 0.00 | 0.00 | 82 | 1010.6 |
| 20260503051940 | 56 | 270 | 2.0 | 10.0 | 0.00 | 0.00 | 0.00 | 82 | 1010.6 |
| 20260503051921 | 56 | 271 | 2.0 | 10.0 | 0.00 | 0.00 | 0.00 | 82 | 1010.6 |
| 20260503051840 | 56 | 269 | 2.0 | 10.0 | 0.00 | 0.00 | 0.00 | 82 | 1010.6 |
| 20260503051741 | 56 | 271 | 2.0 | 10.0 | 0.00 | 0.00 | 0.00 | 82 | 1010.6 |
| 20260503051634 | 56 | 266 | 2.0 | 9.0 | 0.00 | 0.00 | 0.00 | 82 | 1010.6 |
| 20260503051535 | 56 | 217 | 2.0 | 9.0 | 0.00 | 0.00 | 0.00 | 82 | 1010.6 |
| 20260503051434 | 56 | 270 | 2.0 | 9.0 | 0.00 | 0.00 | 0.00 | 82 | 1010.6 |
| 20260503051413 | 56 | 228 | 2.0 | 9.0 | 0.00 | 0.00 | 0.00 | 82 | 1010.6 |
| 20260503051334 | 56 | 252 | 2.0 | 8.0 | 0.00 | 0.00 | 0.00 | 82 | 1010.6 |
| 20260503051234 | 56 | 248 | 2.0 | 8.0 | 0.00 | 0.00 | 0.00 | 82 | 1010.6 |
| 20260503051132 | 57 | 200 | 2.0 | 8.0 | 0.00 | 0.00 | 0.00 | 82 | 1010.6 |
| 20260503051035 | 57 | 239 | 2.0 | 8.0 | 0.00 | 0.00 | 0.00 | 82 | 1010.6 |
| 20260503050932 | 57 | 226 | 3.0 | 8.0 | 0.00 | 0.00 | 0.00 | 81 | 1010.6 |
| 20260503050909 | 57 | 219 | 3.0 | 8.0 | 0.00 | 0.00 | 0.00 | 81 | 1010.6 |
| 20260503050829 | 57 | 238 | 3.0 | 8.0 | 0.00 | 0.00 | 0.00 | 81 | 1010.6 |
| 20260503050729 | 57 | 212 | 3.0 | 8.0 | 0.00 | 0.00 | 0.00 | 81 | 1010.6 |
| 20260503050622 | 57 | 219 | 3.0 | 8.0 | 0.00 | 0.00 | 0.00 | 81 | 1010.5 |
| 20260503050522 | 57 | 239 | 2.0 | 8.0 | 0.00 | 0.00 | 0.00 | 81 | 1010.5 |
| 20260503050422 | 57 | 242 | 3.0 | 8.0 | 0.00 | 0.00 | 0.00 | 81 | 1010.5 |
| 20260503050403 | 57 | 236 | 3.0 | 8.0 | 0.00 | 0.00 | 0.00 | 81 | 1010.5 |
| 20260503050322 | 57 | 229 | 3.0 | 8.0 | 0.00 | 0.00 | 0.00 | 81 | 1010.5 |
| 20260503050222 | 57 | 239 | 2.0 | 8.0 | 0.00 | 0.00 | 0.00 | 81 | 1010.5 |
| 20260503050116 | 57 | 296 | 2.0 | 8.0 | 0.00 | 0.00 | 0.00 | 81 | 1010.6 |
| 20260503050016 | 57 | 236 | 3.0 | 8.0 | 0.00 | 0.00 | 0.00 | 81 | 1010.6 |
| 20260503045916 | 57 | 248 | 2.0 | 8.0 | 0.00 | 0.00 | 0.00 | 81 | 1010.5 |
| 20260503045856 | 57 | 192 | 2.0 | 8.0 | 0.00 | 0.00 | 0.00 | 81 | 1010.5 |
| 20260503045816 | 57 | 221 | 2.0 | 8.0 | 0.00 | 0.00 | 0.00 | 81 | 1010.5 |
| 20260503045715 | 57 | 233 | 2.0 | 8.0 | 0.00 | 0.00 | 0.00 | 81 | 1010.5 |
| 20260503045618 | 57 | 218 | 2.0 | 8.0 | 0.00 | 0.00 | 0.00 | 81 | 1010.4 |
| 20260503045611 | 57 | 211 | 2.0 | 8.0 | 0.00 | 0.00 | 0.00 | 81 | 1010.4 |
| 20260503045510 | 57 | 243 | 2.0 | 8.0 | 0.00 | 0.00 | 0.00 | 81 | 1010.4 |
| 20260503045502 | 57 | 248 | 2.0 | 8.0 | 0.00 | 0.00 | 0.00 | 81 | 1010.4 |
| 20260503045311 | 57 | 273 | 2.0 | 8.0 | 0.00 | 0.00 | 0.00 | 81 | 1010.4 |
| 20260503045210 | 57 | 212 | 2.0 | 8.0 | 0.00 | 0.00 | 0.00 | 81 | 1010.4 |
| 20260503045107 | 57 | 248 | 2.0 | 8.0 | 0.00 | 0.00 | 0.00 | 80 | 1010.3 |
| 20260503045006 | 57 | 238 | 3.0 | 13.0 | 0.00 | 0.00 | 0.00 | 80 | 1010.3 |
| 20260503044906 | 57 | 233 | 2.0 | 13.0 | 0.00 | 0.00 | 0.00 | 81 | 1010.4 |
| 20260503044850 | 57 | 236 | 2.0 | 13.0 | 0.00 | 0.00 | 0.00 | 80 | 1010.4 |
| 20260503044836 | 57 | 235 | 3.0 | 13.0 | 0.00 | 0.00 | 0.00 | 80 | 1010.2 |
| 20260503044806 | 57 | 236 | 3.0 | 13.0 | 0.00 | 0.00 | 0.00 | 80 | 1010.3 |
| 20260503044725 | 57 | 235 | 3.0 | 13.0 | 0.00 | 0.00 | 0.00 | 80 | 1010.3 |
| 20260503044600 | 57 | 232 | 3.0 | 13.0 | 0.00 | 0.00 | 0.00 | 80 | 1010.3 |
| 20260503044509 | 57 | 201 | 3.0 | 13.0 | 0.00 | 0.00 | 0.00 | 80 | 1010.3 |
| 20260503044500 | 57 | 239 | 3.0 | 13.0 | 0.00 | 0.00 | 0.00 | 80 | 1010.2 |
| 20260503044258 | 57 | 288 | 4.0 | 13.0 | 0.00 | 0.00 | 0.00 | 80 | 1010.3 |
| 20260503044158 | 57 | 231 | 4.0 | 13.0 | 0.00 | 0.00 | 0.00 | 80 | 1010.2 |
| 20260503044052 | 57 | 217 | 4.0 | 13.0 | 0.00 | 0.00 | 0.00 | 80 | 1010.2 |
| 20260503043952 | 57 | 225 | 3.0 | 11.0 | 0.00 | 0.00 | 0.00 | 80 | 1010.3 |
| 20260503043856 | 57 | 248 | 3.0 | 11.0 | 0.00 | 0.00 | 0.00 | 80 | 1010.2 |
| 20260503043753 | 57 | 245 | 3.0 | 11.0 | 0.00 | 0.00 | 0.00 | 79 | 1010.2 |
| 20260503043652 | 58 | 252 | 3.0 | 11.0 | 0.00 | 0.00 | 0.00 | 79 | 1010.2 |
| 20260503043546 | 58 | 222 | 3.0 | 11.0 | 0.00 | 0.00 | 0.00 | 79 | 1010.2 |
| 20260503043446 | 58 | 248 | 3.0 | 10.0 | 0.00 | 0.00 | 0.00 | 79 | 1010.2 |
| 20260503043352 | 58 | 253 | 3.0 | 10.0 | 0.00 | 0.00 | 0.00 | 79 | 1010.2 |
| 20260503043346 | 58 | 255 | 3.0 | 10.0 | 0.00 | 0.00 | 0.00 | 79 | 1010.2 |
| 20260503043246 | 58 | 197 | 3.0 | 9.0 | 0.00 | 0.00 | 0.00 | 79 | 1010.2 |
| 20260503043146 | 58 | 255 | 4.0 | 12.0 | 0.00 | 0.00 | 0.00 | 79 | 1010.2 |
| 20260503043121 | 58 | 253 | 4.0 | 12.0 | 0.00 | 0.00 | 0.00 | 79 | 1010.2 |
| 20260503043044 | 58 | 224 | 4.0 | 12.0 | 0.00 | 0.00 | 0.00 | 79 | 1010.2 |
| 20260503043002 | 58 | 241 | 4.0 | 12.0 | 0.00 | 0.00 | 0.00 | 79 | 1010.2 |
| 20260503042845 | 58 | 250 | 4.0 | 12.0 | 0.00 | 0.00 | 0.00 | 79 | 1010.2 |
| 20260503042742 | 58 | 243 | 4.0 | 12.0 | 0.00 | 0.00 | 0.00 | 79 | 1010.1 |
| 20260503042642 | 58 | 215 | 4.0 | 12.0 | 0.00 | 0.00 | 0.00 | 79 | 1010.1 |
| 20260503042542 | 58 | 231 | 5.0 | 12.0 | 0.00 | 0.00 | 0.00 | 79 | 1010.1 |
| 20260503042442 | 58 | 240 | 5.0 | 12.0 | 0.00 | 0.00 | 0.00 | 79 | 1010.1 |
| 20260503042350 | 58 | 239 | 5.0 | 12.0 | 0.00 | 0.00 | 0.00 | 79 | 1010.1 |
| 20260503042343 | 58 | 243 | 5.0 | 12.0 | 0.00 | 0.00 | 0.00 | 79 | 1010.2 |
| 20260503042242 | 58 | 271 | 5.0 | 12.0 | 0.00 | 0.00 | 0.00 | 79 | 1010.2 |
| 20260503042142 | 58 | 233 | 5.0 | 12.0 | 0.00 | 0.00 | 0.00 | 79 | 1010.1 |
| 20260503042042 | 58 | 238 | 5.0 | 12.0 | 0.00 | 0.00 | 0.00 | 78 | 1010.1 |
| 20260503041943 | 58 | 238 | 5.0 | 12.0 | 0.00 | 0.00 | 0.00 | 78 | 1010.1 |
| 20260503041847 | 58 | 215 | 5.0 | 12.0 | 0.00 | 0.00 | 0.00 | 78 | 1010.1 |
| 20260503041842 | 58 | 266 | 5.0 | 12.0 | 0.00 | 0.00 | 0.00 | 78 | 1010.1 |
| 20260503041742 | 58 | 239 | 5.0 | 12.0 | 0.00 | 0.00 | 0.00 | 78 | 1010.1 |
| 20260503041642 | 58 | 239 | 4.0 | 12.0 | 0.00 | 0.00 | 0.00 | 78 | 1010.1 |
| 20260503041542 | 58 | 224 | 4.0 | 12.0 | 0.00 | 0.00 | 0.00 | 78 | 1010.1 |
| 20260503041442 | 58 | 251 | 4.0 | 10.0 | 0.00 | 0.00 | 0.00 | 78 | 1010.1 |
| 20260503041348 | 58 | 146 | 4.0 | 8.0 | 0.00 | 0.00 | 0.00 | 78 | 1010.1 |
| 20260503041335 | 58 | 236 | 4.0 | 8.0 | 0.00 | 0.00 | 0.00 | 78 | 1010.1 |
| 20260503041236 | 58 | 221 | 3.0 | 8.0 | 0.00 | 0.00 | 0.00 | 78 | 1010.1 |
| 20260503041136 | 58 | 235 | 3.0 | 8.0 | 0.00 | 0.00 | 0.00 | 78 | 1010.1 |
| 20260503041036 | 58 | 248 | 3.0 | 8.0 | 0.00 | 0.00 | 0.00 | 78 | 1010.1 |
| 20260503040937 | 58 | 207 | 3.0 | 8.0 | 0.00 | 0.00 | 0.00 | 78 | 1010.1 |
| 20260503040850 | 58 | 248 | 3.0 | 8.0 | 0.00 | 0.00 | 0.00 | 78 | 1010.1 |
| 20260503040836 | 58 | 264 | 3.0 | 8.0 | 0.00 | 0.00 | 0.00 | 78 | 1010.1 |
| 20260503040736 | 58 | 225 | 3.0 | 8.0 | 0.00 | 0.00 | 0.00 | 78 | 1010.1 |
| 20260503040636 | 58 | 230 | 3.0 | 8.0 | 0.00 | 0.00 | 0.00 | 78 | 1010.1 |
| 20260503040537 | 59 | 218 | 3.0 | 8.0 | 0.00 | 0.00 | 0.00 | 78 | 1010.0 |
| 20260503040436 | 59 | 237 | 3.0 | 9.0 | 0.00 | 0.00 | 0.00 | 78 | 1010.0 |
| 20260503040349 | 59 | 229 | 3.0 | 10.0 | 0.00 | 0.00 | 0.00 | 78 | 1010.0 |
| 20260503040336 | 59 | 225 | 3.0 | 10.0 | 0.00 | 0.00 | 0.00 | 78 | 1010.0 |
| 20260503040236 | 59 | 240 | 3.0 | 10.0 | 0.00 | 0.00 | 0.00 | 78 | 1010.0 |
| 20260503040136 | 59 | 259 | 4.0 | 10.0 | 0.00 | 0.00 | 0.00 | 78 | 1010.0 |
| 20260503040035 | 59 | 270 | 4.0 | 10.0 | 0.00 | 0.00 | 0.00 | 78 | 1010.0 |
| 20260503035936 | 59 | 243 | 4.0 | 10.0 | 0.00 | 0.00 | 0.00 | 77 | 1010.0 |
| 20260503035847 | 59 | 252 | 4.0 | 10.0 | 0.00 | 0.00 | 0.00 | 77 | 1010.0 |
| 20260503035836 | 59 | 248 | 4.0 | 10.0 | 0.00 | 0.00 | 0.00 | 77 | 1010.0 |
| 20260503035736 | 59 | 236 | 4.0 | 10.0 | 0.00 | 0.00 | 0.00 | 77 | 1010.0 |
| 20260503035632 | 59 | 240 | 3.0 | 10.0 | 0.00 | 0.00 | 0.00 | 77 | 1010.0 |
| 20260503035533 | 59 | 236 | 3.0 | 10.0 | 0.00 | 0.00 | 0.00 | 77 | 1009.9 |
| 20260503035432 | 59 | 256 | 2.0 | 10.0 | 0.00 | 0.00 | 0.00 | 77 | 1009.9 |
| 20260503035350 | 59 | 243 | 2.0 | 9.0 | 0.00 | 0.00 | 0.00 | 77 | 1009.9 |
| 20260503035332 | 59 | 256 | 2.0 | 9.0 | 0.00 | 0.00 | 0.00 | 77 | 1009.9 |
| 20260503035232 | 59 | 212 | 2.0 | 8.0 | 0.00 | 0.00 | 0.00 | 77 | 1009.9 |
| 20260503035132 | 59 | 249 | 2.0 | 8.0 | 0.00 | 0.00 | 0.00 | 77 | 1009.8 |
| 20260503035032 | 59 | 204 | 2.0 | 8.0 | 0.00 | 0.00 | 0.00 | 77 | 1009.8 |
| 20260503034932 | 59 | 228 | 2.0 | 6.0 | 0.00 | 0.00 | 0.00 | 77 | 1009.9 |
| 20260503034847 | 59 | 240 | 2.0 | 8.0 | 0.00 | 0.00 | 0.00 | 77 | 1009.9 |
| 20260503034832 | 59 | 236 | 2.0 | 8.0 | 0.00 | 0.00 | 0.00 | 77 | 1009.9 |
| 20260503034732 | 59 | 221 | 2.0 | 12.0 | 0.00 | 0.00 | 0.00 | 77 | 1009.9 |
| 20260503034630 | 59 | 255 | 3.0 | 12.0 | 0.00 | 0.00 | 0.00 | 77 | 1009.9 |
| 20260503034528 | 60 | 217 | 3.0 | 12.0 | 0.00 | 0.00 | 0.00 | 77 | 1009.8 |
| 20260503034428 | 60 | 259 | 3.0 | 12.0 | 0.00 | 0.00 | 0.00 | 77 | 1009.9 |
| 20260503034350 | 60 | 259 | 3.0 | 12.0 | 0.00 | 0.00 | 0.00 | 77 | 1009.9 |
| 20260503034326 | 60 | 266 | 4.0 | 12.0 | 0.00 | 0.00 | 0.00 | 77 | 1009.9 |
| 20260503034225 | 60 | 242 | 4.0 | 12.0 | 0.00 | 0.00 | 0.00 | 77 | 1009.8 |
| 20260503034124 | 60 | 217 | 4.0 | 12.0 | 0.00 | 0.00 | 0.00 | 77 | 1009.8 |
| 20260503034029 | 60 | 228 | 4.0 | 12.0 | 0.00 | 0.00 | 0.00 | 77 | 1009.8 |
| 20260503033924 | 60 | 257 | 4.0 | 12.0 | 0.00 | 0.00 | 0.00 | 77 | 1009.8 |
| 20260503033848 | 60 | 231 | 4.0 | 12.0 | 0.00 | 0.00 | 0.00 | 77 | 1009.9 |
| 20260503033825 | 60 | 239 | 4.0 | 9.0 | 0.00 | 0.00 | 0.00 | 77 | 1009.9 |
| 20260503033725 | 60 | 236 | 4.0 | 9.0 | 0.00 | 0.00 | 0.00 | 77 | 1009.8 |
| 20260503033624 | 60 | 245 | 4.0 | 10.0 | 0.00 | 0.00 | 0.00 | 77 | 1009.8 |
| 20260503033525 | 60 | 248 | 4.0 | 10.0 | 0.00 | 0.00 | 0.00 | 77 | 1009.8 |
| 20260503033424 | 60 | 242 | 4.0 | 10.0 | 0.00 | 0.00 | 0.00 | 77 | 1009.8 |
| 20260503033343 | 60 | 228 | 4.0 | 10.0 | 0.00 | 0.00 | 0.00 | 77 | 1009.8 |
| 20260503033324 | 60 | 228 | 3.0 | 10.0 | 0.00 | 0.00 | 0.00 | 77 | 1009.8 |
| 20260503033224 | 60 | 214 | 3.0 | 10.0 | 0.00 | 0.00 | 0.00 | 77 | 1009.8 |
| 20260503033124 | 60 | 225 | 4.0 | 10.0 | 0.00 | 0.00 | 0.00 | 77 | 1009.7 |
| 20260503033028 | 60 | 248 | 3.0 | 10.0 | 0.00 | 0.00 | 0.00 | 76 | 1009.7 |
| 20260503032928 | 60 | 242 | 3.0 | 10.0 | 0.00 | 0.00 | 0.00 | 76 | 1009.7 |
| 20260503032856 | 60 | 245 | 3.0 | 10.0 | 0.00 | 0.00 | 0.00 | 76 | 1009.7 |
| 20260503032824 | 60 | 246 | 3.0 | 10.0 | 0.00 | 0.00 | 0.00 | 76 | 1009.7 |
| 20260503032724 | 60 | 236 | 3.0 | 10.0 | 0.00 | 0.00 | 0.00 | 76 | 1009.8 |
| 20260503032624 | 60 | 230 | 2.0 | 10.0 | 0.00 | 0.00 | 0.00 | 76 | 1009.8 |
| 20260503032524 | 60 | 262 | 2.0 | 10.0 | 0.00 | 0.00 | 0.00 | 76 | 1009.8 |
| 20260503032422 | 60 | 263 | 2.0 | 10.0 | 0.00 | 0.00 | 0.00 | 76 | 1009.8 |
| 20260503032343 | 60 | 229 | 2.0 | 10.0 | 0.00 | 0.00 | 0.00 | 76 | 1009.7 |
| 20260503032320 | 60 | 285 | 3.0 | 10.0 | 0.00 | 0.00 | 0.00 | 75 | 1009.7 |
| 20260503032220 | 60 | 243 | 2.0 | 7.0 | 0.00 | 0.00 | 0.00 | 75 | 1009.7 |
| 20260503032120 | 60 | 253 | 2.0 | 6.0 | 0.00 | 0.00 | 0.00 | 75 | 1009.7 |
| 20260503032030 | 60 | 236 | 3.0 | 6.0 | 0.00 | 0.00 | 0.00 | 75 | 1009.7 |
| 20260503031920 | 60 | 235 | 3.0 | 8.0 | 0.00 | 0.00 | 0.00 | 75 | 1009.7 |
| 20260503031844 | 60 | 238 | 3.0 | 8.0 | 0.00 | 0.00 | 0.00 | 75 | 1009.7 |
| 20260503031820 | 60 | 225 | 3.0 | 8.0 | 0.00 | 0.00 | 0.00 | 75 | 1009.7 |
| 20260503031724 | 60 | 245 | 3.0 | 8.0 | 0.00 | 0.00 | 0.00 | 75 | 1009.7 |
| 20260503031614 | 61 | 235 | 3.0 | 8.0 | 0.00 | 0.00 | 0.00 | 75 | 1009.8 |
| 20260503031514 | 61 | 238 | 3.0 | 8.0 | 0.00 | 0.00 | 0.00 | 75 | 1009.8 |
| 20260503031414 | 61 | 240 | 3.0 | 8.0 | 0.00 | 0.00 | 0.00 | 75 | 1009.7 |
| 20260503031343 | 61 | 229 | 3.0 | 8.0 | 0.00 | 0.00 | 0.00 | 75 | 1009.7 |
| 20260503031315 | 61 | 238 | 3.0 | 8.0 | 0.00 | 0.00 | 0.00 | 74 | 1009.7 |
| 20260503031204 | 61 | 233 | 3.0 | 8.0 | 0.00 | 0.00 | 0.00 | 74 | 1009.7 |
| 20260503031104 | 61 | 214 | 3.0 | 8.0 | 0.00 | 0.00 | 0.00 | 74 | 1009.7 |
| 20260503031004 | 61 | 226 | 3.0 | 8.0 | 0.00 | 0.00 | 0.00 | 75 | 1009.7 |
| 20260503030844 | 61 | 224 | 3.0 | 7.0 | 0.00 | 0.00 | 0.00 | 74 | 1009.7 |
| 20260503030802 | 61 | 271 | 2.0 | 7.0 | 0.00 | 0.00 | 0.00 | 74 | 1009.7 |
| 20260503030658 | 61 | 219 | 2.0 | 7.0 | 0.00 | 0.00 | 0.00 | 74 | 1009.7 |
| 20260503030559 | 61 | 259 | 2.0 | 7.0 | 0.00 | 0.00 | 0.00 | 74 | 1009.7 |
| 20260503030459 | 61 | 267 | 2.0 | 7.0 | 0.00 | 0.00 | 0.00 | 74 | 1009.6 |
| 20260503030405 | 61 | 225 | 2.0 | 7.0 | 0.00 | 0.00 | 0.00 | 74 | 1009.7 |
| 20260503030355 | 61 | 222 | 2.0 | 9.0 | 0.00 | 0.00 | 0.00 | 74 | 1009.6 |
| 20260503030256 | 61 | 253 | 2.0 | 9.0 | 0.00 | 0.00 | 0.00 | 74 | 1009.6 |
| 20260503030152 | 61 | 256 | 2.0 | 9.0 | 0.00 | 0.00 | 0.00 | 74 | 1009.7 |
| 20260503030052 | 61 | 238 | 2.0 | 9.0 | 0.00 | 0.00 | 0.00 | 74 | 1009.6 |
| 20260503025952 | 61 | 229 | 2.0 | 9.0 | 0.00 | 0.00 | 0.00 | 74 | 1009.6 |
| 20260503025856 | 61 | 228 | 2.0 | 9.0 | 0.00 | 0.00 | 0.00 | 74 | 1009.6 |
| 20260503025845 | 61 | 229 | 2.0 | 9.0 | 0.00 | 0.00 | 0.00 | 74 | 1009.6 |
| 20260503025750 | 62 | 228 | 2.0 | 9.0 | 0.00 | 0.00 | 0.00 | 74 | 1009.6 |
| 20260503025650 | 62 | 245 | 2.0 | 9.0 | 0.00 | 0.00 | 0.00 | 73 | 1009.6 |
| 20260503025548 | 62 | 218 | 3.0 | 9.0 | 0.00 | 0.00 | 0.00 | 73 | 1009.6 |
| 20260503025448 | 62 | 224 | 3.0 | 9.0 | 0.00 | 0.00 | 0.00 | 73 | 1009.5 |
| 20260503025353 | 62 | 257 | 3.0 | 9.0 | 0.00 | 0.00 | 0.00 | 73 | 1009.5 |
| 20260503025342 | 62 | 240 | 3.0 | 9.0 | 0.00 | 0.00 | 0.00 | 73 | 1009.5 |
| 20260503025248 | 62 | 257 | 3.0 | 11.0 | 0.00 | 0.00 | 0.00 | 73 | 1009.5 |
| 20260503025146 | 62 | 256 | 3.0 | 11.0 | 0.00 | 0.00 | 0.00 | 73 | 1009.5 |
| 20260503025046 | 62 | 200 | 3.0 | 11.0 | 0.00 | 0.00 | 0.00 | 73 | 1009.5 |
| 20260503024946 | 62 | 249 | 2.0 | 11.0 | 0.00 | 0.00 | 0.00 | 73 | 1009.5 |
| 20260503024850 | 62 | 217 | 2.0 | 11.0 | 0.00 | 0.00 | 0.00 | 73 | 1009.5 |
| 20260503024840 | 62 | 207 | 2.0 | 11.0 | 0.00 | 0.00 | 0.00 | 73 | 1009.5 |
| 20260503024744 | 62 | 257 | 2.0 | 11.0 | 0.00 | 0.00 | 0.00 | 73 | 1009.5 |
| 20260503024644 | 62 | 218 | 2.0 | 11.0 | 0.00 | 0.00 | 0.00 | 73 | 1009.5 |
| 20260503024544 | 62 | 253 | 2.0 | 11.0 | 0.00 | 0.00 | 0.00 | 73 | 1009.5 |
| 20260503024444 | 62 | 236 | 2.0 | 11.0 | 0.00 | 0.00 | 0.00 | 72 | 1009.6 |
| 20260503024341 | 62 | 176 | 1.0 | 11.0 | 0.00 | 0.00 | 0.00 | 73 | 1009.5 |
| 20260503024244 | 62 | 233 | 1.0 | 6.0 | 0.00 | 0.00 | 0.00 | 73 | 1009.5 |
| 20260503024144 | 62 | 245 | 1.0 | 6.0 | 0.00 | 0.00 | 0.00 | 73 | 1009.5 |
| 20260503024044 | 62 | 239 | 1.0 | 7.0 | 0.00 | 0.00 | 0.00 | 73 | 1009.5 |
| 20260503023942 | 63 | 239 | 2.0 | 7.0 | 0.00 | 0.00 | 0.00 | 73 | 1009.5 |
| 20260503023845 | 63 | 239 | 2.0 | 7.0 | 0.00 | 0.00 | 0.00 | 73 | 1009.5 |
| 20260503023739 | 63 | 239 | 2.0 | 7.0 | 0.00 | 0.00 | 0.00 | 72 | 1009.4 |
| 20260503023640 | 63 | 239 | 3.0 | 7.0 | 0.00 | 0.00 | 0.00 | 72 | 1009.4 |
| 20260503023608 | 63 | 224 | 3.0 | 9.0 | 0.00 | 0.00 | 0.00 | 72 | 1009.4 |
| 20260503023538 | 63 | 239 | 3.0 | 9.0 | 0.00 | 0.00 | 0.00 | 72 | 1009.5 |
| 20260503023449 | 63 | 225 | 3.0 | 9.0 | 0.00 | 0.00 | 0.00 | 72 | 1009.4 |
| 20260503023332 | 63 | 240 | 3.0 | 9.0 | 0.00 | 0.00 | 0.00 | 72 | 1009.4 |
| 20260503023233 | 63 | 216 | 3.0 | 9.0 | 0.00 | 0.00 | 0.00 | 72 | 1009.4 |
| 20260503023132 | 63 | 256 | 3.0 | 9.0 | 0.00 | 0.00 | 0.00 | 71 | 1009.4 |
| 20260503023032 | 63 | 237 | 3.0 | 9.0 | 0.00 | 0.00 | 0.00 | 71 | 1009.4 |
| 20260503022932 | 63 | 167 | 3.0 | 9.0 | 0.00 | 0.00 | 0.00 | 71 | 1009.4 |
| 20260503022840 | 63 | 238 | 3.0 | 9.0 | 0.00 | 0.00 | 0.00 | 71 | 1009.4 |
| 20260503022832 | 63 | 235 | 3.0 | 9.0 | 0.00 | 0.00 | 0.00 | 71 | 1009.4 |
| 20260503022733 | 63 | 198 | 3.0 | 9.0 | 0.00 | 0.00 | 0.00 | 71 | 1009.4 |
| 20260503022632 | 63 | 219 | 3.0 | 8.0 | 0.00 | 0.00 | 0.00 | 71 | 1009.4 |
| 20260503022532 | 63 | 252 | 3.0 | 8.0 | 0.00 | 0.00 | 0.00 | 71 | 1009.4 |
| 20260503022430 | 63 | 231 | 2.0 | 8.0 | 0.00 | 0.00 | 0.00 | 71 | 1009.4 |
| 20260503022329 | 63 | 226 | 2.0 | 8.0 | 0.00 | 0.00 | 0.00 | 71 | 1009.4 |
| 20260503022300 | 64 | 231 | 2.0 | 8.0 | 0.00 | 0.00 | 0.00 | 70 | 1009.4 |
| 20260503022130 | 64 | 248 | 1.0 | 8.0 | 0.00 | 0.00 | 0.00 | 70 | 1009.4 |
| 20260503022031 | 64 | 200 | 1.0 | 7.0 | 0.00 | 0.00 | 0.00 | 70 | 1009.4 |
| 20260503021930 | 64 | 250 | 1.0 | 5.0 | 0.00 | 0.00 | 0.00 | 70 | 1009.4 |
| 20260503021830 | 64 | 218 | 1.0 | 5.0 | 0.00 | 0.00 | 0.00 | 70 | 1009.4 |
| 20260503021728 | 64 | 239 | 1.0 | 5.0 | 0.00 | 0.00 | 0.00 | 70 | 1009.4 |
| 20260503021626 | 64 | 281 | 1.0 | 5.0 | 0.00 | 0.00 | 0.00 | 70 | 1009.4 |
| 20260503021526 | 64 | 236 | 1.0 | 5.0 | 0.00 | 0.00 | 0.00 | 70 | 1009.4 |
| 20260503021427 | 64 | 236 | 1.0 | 5.0 | 0.00 | 0.00 | 0.00 | 69 | 1009.3 |
| 20260503021324 | 64 | 236 | 1.0 | 5.0 | 0.00 | 0.00 | 0.00 | 69 | 1009.4 |
| 20260503021252 | 64 | 232 | 1.0 | 5.0 | 0.00 | 0.00 | 0.00 | 69 | 1009.4 |
| 20260503021221 | 64 | 232 | 1.0 | 5.0 | 0.00 | 0.00 | 0.00 | 69 | 1009.4 |
| 20260503021121 | 64 | 259 | 1.0 | 5.0 | 0.00 | 0.00 | 0.00 | 69 | 1009.4 |
| 20260503021020 | 64 | 225 | 1.0 | 3.0 | 0.00 | 0.00 | 0.00 | 69 | 1009.4 |
| 20260503020918 | 64 | 219 | 0.0 | 3.0 | 0.00 | 0.00 | 0.00 | 69 | 1009.4 |
| 20260503020831 | 64 | 210 | 0.0 | 3.0 | 0.00 | 0.00 | 0.00 | 69 | 1009.4 |
| 20260503020816 | 64 | 229 | 0.0 | 3.0 | 0.00 | 0.00 | 0.00 | 68 | 1009.4 |
| 20260503020715 | 65 | 207 | 0.0 | 3.0 | 0.00 | 0.00 | 0.00 | 68 | 1009.4 |
| 20260503020615 | 65 | 296 | 0.0 | 3.0 | 0.00 | 0.00 | 0.00 | 69 | 1009.3 |
| 20260503020514 | 65 | 241 | 1.0 | 4.0 | 0.00 | 0.00 | 0.00 | 69 | 1009.4 |
| 20260503020412 | 65 | 238 | 1.0 | 6.0 | 0.00 | 0.00 | 0.00 | 69 | 1009.4 |
| 20260503020310 | 65 | 238 | 1.0 | 9.0 | 0.00 | 0.00 | 0.00 | 69 | 1009.4 |
| 20260503020209 | 65 | 239 | 1.0 | 9.0 | 0.00 | 0.00 | 0.00 | 69 | 1009.4 |
| 20260503020108 | 65 | 238 | 1.0 | 9.0 | 0.00 | 0.00 | 0.00 | 69 | 1009.4 |
| 20260503020008 | 65 | 238 | 2.0 | 9.0 | 0.00 | 0.00 | 0.00 | 69 | 1009.4 |
| 20260503015906 | 65 | 238 | 2.0 | 9.0 | 0.00 | 0.00 | 0.00 | 69 | 1009.3 |
| 20260503015830 | 65 | 238 | 2.0 | 9.0 | 0.00 | 0.00 | 0.00 | 69 | 1009.3 |
| 20260503015803 | 65 | 238 | 2.0 | 9.0 | 0.00 | 0.00 | 0.00 | 69 | 1009.3 |
| 20260503015659 | 65 | 222 | 2.0 | 9.0 | 0.00 | 0.00 | 0.00 | 69 | 1009.4 |
| 20260503015558 | 65 | 239 | 3.0 | 9.0 | 0.00 | 0.00 | 0.00 | 68 | 1009.4 |
| 20260503015458 | 65 | 240 | 3.0 | 9.0 | 0.00 | 0.00 | 0.00 | 68 | 1009.4 |
| 20260503015358 | 65 | 225 | 2.0 | 9.0 | 0.00 | 0.00 | 0.00 | 68 | 1009.4 |
| 20260503015334 | 65 | 232 | 3.0 | 9.0 | 0.00 | 0.00 | 0.00 | 68 | 1009.4 |
| 20260503015259 | 65 | 229 | 3.0 | 9.0 | 0.00 | 0.00 | 0.00 | 69 | 1009.4 |
| 20260503015152 | 65 | 277 | 2.0 | 7.0 | 0.00 | 0.00 | 0.00 | 68 | 1009.4 |
| 20260503015052 | 65 | 277 | 3.0 | 7.0 | 0.00 | 0.00 | 0.00 | 68 | 1009.4 |
| 20260503014952 | 65 | 229 | 2.0 | 7.0 | 0.00 | 0.00 | 0.00 | 68 | 1009.4 |
| 20260503014852 | 65 | 232 | 3.0 | 7.0 | 0.00 | 0.00 | 0.00 | 68 | 1009.4 |
| 20260503014831 | 65 | 253 | 2.0 | 7.0 | 0.00 | 0.00 | 0.00 | 67 | 1009.4 |
| 20260503014751 | 65 | 242 | 2.0 | 6.0 | 0.00 | 0.00 | 0.00 | 67 | 1009.4 |
| 20260503014647 | 65 | 218 | 2.0 | 6.0 | 0.00 | 0.00 | 0.00 | 67 | 1009.4 |
| 20260503014546 | 65 | 211 | 2.0 | 6.0 | 0.00 | 0.00 | 0.00 | 67 | 1009.4 |
| 20260503014446 | 65 | 228 | 2.0 | 6.0 | 0.00 | 0.00 | 0.00 | 67 | 1009.4 |
| 20260503014346 | 66 | 259 | 1.0 | 6.0 | 0.00 | 0.00 | 0.00 | 66 | 1009.4 |
| 20260503014330 | 66 | 208 | 1.0 | 6.0 | 0.00 | 0.00 | 0.00 | 67 | 1009.4 |
| 20260503014246 | 66 | 235 | 1.0 | 5.0 | 0.00 | 0.00 | 0.00 | 67 | 1009.4 |
| 20260503014140 | 66 | 321 | 1.0 | 5.0 | 0.00 | 0.00 | 0.00 | 68 | 1009.4 |
| 20260503014041 | 66 | 256 | 1.0 | 6.0 | 0.00 | 0.00 | 0.00 | 68 | 1009.4 |
| 20260503013939 | 66 | 236 | 2.0 | 6.0 | 0.00 | 0.00 | 0.00 | 68 | 1009.4 |
| 20260503013844 | 66 | 246 | 2.0 | 9.0 | 0.00 | 0.00 | 0.00 | 68 | 1009.4 |
| 20260503013833 | 66 | 246 | 2.0 | 11.0 | 0.00 | 0.00 | 0.00 | 68 | 1009.4 |
| 20260503013740 | 66 | 319 | 2.0 | 11.0 | 0.00 | 0.00 | 0.00 | 68 | 1009.4 |
| 20260503013636 | 66 | 283 | 2.0 | 11.0 | 0.00 | 0.00 | 0.00 | 68 | 1009.4 |
| 20260503013536 | 66 | 232 | 3.0 | 11.0 | 0.00 | 0.00 | 0.00 | 68 | 1009.4 |
| 20260503013436 | 66 | 229 | 3.0 | 11.0 | 0.00 | 0.00 | 0.00 | 68 | 1009.4 |
| 20260503013330 | 66 | 246 | 3.0 | 11.0 | 0.00 | 0.00 | 0.00 | 68 | 1009.4 |
| 20260503013234 | 66 | 246 | 3.0 | 11.0 | 0.00 | 0.00 | 0.00 | 68 | 1009.4 |
| 20260503013132 | 66 | 283 | 3.0 | 11.0 | 0.00 | 0.00 | 0.00 | 68 | 1009.4 |
| 20260503013032 | 66 | 195 | 3.0 | 11.0 | 0.00 | 0.00 | 0.00 | 67 | 1009.5 |
| 20260503012932 | 66 | 239 | 3.0 | 11.0 | 0.00 | 0.00 | 0.00 | 67 | 1009.4 |
| 20260503012835 | 66 | 243 | 2.0 | 9.0 | 0.00 | 0.00 | 0.00 | 67 | 1009.4 |
| 20260503012732 | 66 | 233 | 2.0 | 9.0 | 0.00 | 0.00 | 0.00 | 67 | 1009.4 |
| 20260503012632 | 66 | 233 | 3.0 | 9.0 | 0.00 | 0.00 | 0.00 | 67 | 1009.4 |
| 20260503012553 | 66 | 231 | 4.0 | 11.0 | 0.00 | 0.00 | 0.00 | 66 | 1009.4 |
| 20260503012532 | 66 | 239 | 3.0 | 11.0 | 0.00 | 0.00 | 0.00 | 66 | 1009.4 |
| 20260503012446 | 66 | 224 | 4.0 | 11.0 | 0.00 | 0.00 | 0.00 | 66 | 1009.4 |
| 20260503012330 | 66 | 249 | 4.0 | 11.0 | 0.00 | 0.00 | 0.00 | 66 | 1009.4 |
| 20260503012230 | 66 | 286 | 5.0 | 12.0 | 0.00 | 0.00 | 0.00 | 67 | 1009.4 |
| 20260503012130 | 66 | 243 | 4.0 | 12.0 | 0.00 | 0.00 | 0.00 | 66 | 1009.4 |
| 20260503012058 | 66 | 240 | 5.0 | 12.0 | 0.00 | 0.00 | 0.00 | 66 | 1009.4 |
| 20260503012030 | 66 | 233 | 4.0 | 12.0 | 0.00 | 0.00 | 0.00 | 66 | 1009.4 |
| 20260503011947 | 66 | 238 | 4.0 | 12.0 | 0.00 | 0.00 | 0.00 | 66 | 1009.4 |
| 20260503011830 | 66 | 240 | 5.0 | 12.0 | 0.00 | 0.00 | 0.00 | 66 | 1009.4 |
| 20260503011730 | 66 | 218 | 5.0 | 12.0 | 0.00 | 0.00 | 0.00 | 66 | 1009.4 |
| 20260503011631 | 66 | 228 | 5.0 | 12.0 | 0.00 | 0.00 | 0.00 | 65 | 1009.4 |
| 20260503011530 | 66 | 274 | 5.0 | 12.0 | 0.00 | 0.00 | 0.00 | 65 | 1009.4 |
| 20260503011426 | 66 | 250 | 4.0 | 12.0 | 0.00 | 0.00 | 0.00 | 65 | 1009.4 |
| 20260503011334 | 66 | 194 | 4.0 | 12.0 | 0.00 | 0.00 | 0.00 | 66 | 1009.4 |
| 20260503011326 | 66 | 231 | 4.0 | 12.0 | 0.00 | 0.00 | 0.00 | 66 | 1009.4 |
| 20260503011229 | 66 | 242 | 4.0 | 11.0 | 0.00 | 0.00 | 0.00 | 66 | 1009.4 |
| 20260503011127 | 66 | 229 | 4.0 | 11.0 | 0.00 | 0.00 | 0.00 | 66 | 1009.4 |
| 20260503011052 | 66 | 245 | 4.0 | 11.0 | 0.00 | 0.00 | 0.00 | 65 | 1009.4 |
| 20260503011026 | 66 | 259 | 4.0 | 11.0 | 0.00 | 0.00 | 0.00 | 66 | 1009.4 |
| 20260503010944 | 66 | 248 | 4.0 | 11.0 | 0.00 | 0.00 | 0.00 | 65 | 1009.4 |
| 20260503010826 | 66 | 242 | 4.0 | 11.0 | 0.00 | 0.00 | 0.00 | 65 | 1009.4 |
| 20260503010729 | 67 | 262 | 3.0 | 11.0 | 0.00 | 0.00 | 0.00 | 65 | 1009.4 |
| 20260503010626 | 67 | 225 | 3.0 | 11.0 | 0.00 | 0.00 | 0.00 | 64 | 1009.5 |
| 20260503010524 | 67 | 229 | 3.0 | 11.0 | 0.00 | 0.00 | 0.00 | 65 | 1009.5 |
| 20260503010424 | 67 | 217 | 3.0 | 9.0 | 0.00 | 0.00 | 0.00 | 65 | 1009.4 |
| 20260503010324 | 67 | 287 | 3.0 | 9.0 | 0.00 | 0.00 | 0.00 | 64 | 1009.4 |
| 20260503010224 | 67 | 221 | 2.0 | 9.0 | 0.00 | 0.00 | 0.00 | 64 | 1009.5 |
| 20260503010124 | 67 | 248 | 2.0 | 11.0 | 0.00 | 0.00 | 0.00 | 64 | 1009.5 |
| 20260503010025 | 67 | 268 | 2.0 | 11.0 | 0.00 | 0.00 | 0.00 | 64 | 1009.5 |
| 20260503005924 | 67 | 240 | 2.0 | 11.0 | 0.00 | 0.00 | 0.00 | 64 | 1009.4 |
| 20260503005832 | 67 | 239 | 2.0 | 11.0 | 0.00 | 0.00 | 0.00 | 64 | 1009.5 |
| 20260503005824 | 67 | 207 | 2.0 | 11.0 | 0.00 | 0.00 | 0.00 | 64 | 1009.5 |
| 20260503005723 | 67 | 231 | 2.0 | 11.0 | 0.00 | 0.00 | 0.00 | 64 | 1009.5 |
| 20260503005622 | 67 | 212 | 2.0 | 11.0 | 0.00 | 0.00 | 0.00 | 63 | 1009.5 |
| 20260503005522 | 67 | 290 | 2.0 | 11.0 | 0.00 | 0.00 | 0.00 | 64 | 1009.5 |
| 20260503005422 | 67 | 274 | 2.0 | 11.0 | 0.00 | 0.00 | 0.00 | 64 | 1009.4 |
| 20260503005330 | 67 | 287 | 2.0 | 11.0 | 0.00 | 0.00 | 0.00 | 63 | 1009.5 |
| 20260503005322 | 67 | 293 | 2.0 | 11.0 | 0.00 | 0.00 | 0.00 | 63 | 1009.5 |
| 20260503005222 | 67 | 283 | 2.0 | 11.0 | 0.00 | 0.00 | 0.00 | 63 | 1009.4 |
| 20260503005122 | 67 | 242 | 2.0 | 7.0 | 0.00 | 0.00 | 0.00 | 63 | 1009.4 |
| 20260503005019 | 67 | 262 | 2.0 | 7.0 | 0.00 | 0.00 | 0.00 | 63 | 1009.4 |
| 20260503004920 | 67 | 274 | 2.0 | 7.0 | 0.00 | 0.00 | 0.00 | 63 | 1009.4 |
| 20260503004827 | 67 | 245 | 2.0 | 7.0 | 0.00 | 0.00 | 0.00 | 63 | 1009.4 |
| 20260503004820 | 67 | 233 | 2.0 | 7.0 | 0.00 | 0.00 | 0.00 | 63 | 1009.4 |
| 20260503004720 | 67 | 278 | 2.0 | 7.0 | 0.00 | 0.00 | 0.00 | 64 | 1009.3 |
| 20260503004620 | 67 | 233 | 2.0 | 8.0 | 0.00 | 0.00 | 0.00 | 64 | 1009.3 |
| 20260503004520 | 67 | 230 | 2.0 | 8.0 | 0.00 | 0.00 | 0.00 | 64 | 1009.3 |
| 20260503004420 | 67 | 301 | 2.0 | 8.0 | 0.00 | 0.00 | 0.00 | 64 | 1009.3 |
| 20260503004320 | 67 | 240 | 2.0 | 8.0 | 0.00 | 0.00 | 0.00 | 64 | 1009.3 |
| 20260503004220 | 67 | 238 | 3.0 | 8.0 | 0.00 | 0.00 | 0.00 | 64 | 1009.3 |
| 20260503004120 | 67 | 271 | 3.0 | 11.0 | 0.00 | 0.00 | 0.00 | 63 | 1009.3 |
| 20260503004015 | 67 | 233 | 3.0 | 11.0 | 0.00 | 0.00 | 0.00 | 64 | 1009.3 |
| 20260503003915 | 67 | 224 | 3.0 | 11.0 | 0.00 | 0.00 | 0.00 | 64 | 1009.3 |
| 20260503003824 | 67 | 245 | 3.0 | 11.0 | 0.00 | 0.00 | 0.00 | 64 | 1009.3 |
| 20260503003812 | 67 | 239 | 3.0 | 11.0 | 0.00 | 0.00 | 0.00 | 64 | 1009.3 |
| 20260503003712 | 67 | 267 | 3.0 | 11.0 | 0.00 | 0.00 | 0.00 | 63 | 1009.4 |
| 20260503003612 | 67 | 240 | 3.0 | 11.0 | 0.00 | 0.00 | 0.00 | 64 | 1009.4 |
| 20260503003508 | 67 | 273 | 3.0 | 11.0 | 0.00 | 0.00 | 0.00 | 64 | 1009.3 |
| 20260503003406 | 67 | 248 | 3.0 | 11.0 | 0.00 | 0.00 | 0.00 | 64 | 1009.4 |
| 20260503003324 | 67 | 256 | 4.0 | 11.0 | 0.00 | 0.00 | 0.00 | 63 | 1009.4 |
| 20260503003304 | 67 | 252 | 4.0 | 12.0 | 0.00 | 0.00 | 0.00 | 63 | 1009.4 |
| 20260503003204 | 67 | 242 | 4.0 | 12.0 | 0.00 | 0.00 | 0.00 | 63 | 1009.4 |
| 20260503003104 | 67 | 260 | 4.0 | 12.0 | 0.00 | 0.00 | 0.00 | 63 | 1009.4 |
| 20260503003049 | 68 | 245 | 3.0 | 12.0 | 0.00 | 0.00 | 0.00 | 62 | 1009.4 |
| 20260503003000 | 67 | 266 | 4.0 | 12.0 | 0.00 | 0.00 | 0.00 | 62 | 1009.4 |
| 20260503002937 | 68 | 264 | 3.0 | 12.0 | 0.00 | 0.00 | 0.00 | 63 | 1009.4 |
| 20260503002800 | 68 | 245 | 3.0 | 12.0 | 0.00 | 0.00 | 0.00 | 62 | 1009.4 |
| 20260503002700 | 68 | 236 | 3.0 | 12.0 | 0.00 | 0.00 | 0.00 | 62 | 1009.4 |
| 20260503002600 | 68 | 257 | 3.0 | 12.0 | 0.00 | 0.00 | 0.00 | 62 | 1009.4 |
| 20260503002501 | 68 | 263 | 3.0 | 12.0 | 0.00 | 0.00 | 0.00 | 62 | 1009.4 |
| 20260503002400 | 68 | 229 | 3.0 | 12.0 | 0.00 | 0.00 | 0.00 | 62 | 1009.4 |
| 20260503002324 | 68 | 204 | 3.0 | 12.0 | 0.00 | 0.00 | 0.00 | 62 | 1009.4 |
| 20260503002300 | 68 | 214 | 3.0 | 9.0 | 0.00 | 0.00 | 0.00 | 62 | 1009.4 |
| 20260503002201 | 68 | 222 | 3.0 | 11.0 | 0.00 | 0.00 | 0.00 | 62 | 1009.4 |
| 20260503002100 | 68 | 256 | 3.0 | 11.0 | 0.00 | 0.00 | 0.00 | 62 | 1009.4 |
| 20260503002000 | 68 | 259 | 3.0 | 11.0 | 0.00 | 0.00 | 0.00 | 62 | 1009.4 |
| 20260503001900 | 68 | 240 | 3.0 | 11.0 | 0.00 | 0.00 | 0.00 | 63 | 1009.3 |
| 20260503001824 | 68 | 228 | 3.0 | 11.0 | 0.00 | 0.00 | 0.00 | 63 | 1009.3 |
| 20260503001800 | 68 | 277 | 3.0 | 11.0 | 0.00 | 0.00 | 0.00 | 63 | 1009.3 |
| 20260503001700 | 68 | 193 | 4.0 | 11.0 | 0.00 | 0.00 | 0.00 | 62 | 1009.3 |
| 20260503001600 | 68 | 193 | 4.0 | 11.0 | 0.00 | 0.00 | 0.00 | 62 | 1009.4 |
| 20260503001500 | 68 | 240 | 4.0 | 11.0 | 0.00 | 0.00 | 0.00 | 62 | 1009.4 |
| 20260503001400 | 68 | 248 | 4.0 | 11.0 | 0.00 | 0.00 | 0.00 | 61 | 1009.4 |
| 20260503001323 | 68 | 243 | 4.0 | 11.0 | 0.00 | 0.00 | 0.00 | 61 | 1009.4 |
| 20260503001258 | 68 | 229 | 4.0 | 11.0 | 0.00 | 0.00 | 0.00 | 61 | 1009.4 |
| 20260503001159 | 68 | 239 | 4.0 | 11.0 | 0.00 | 0.00 | 0.00 | 60 | 1009.4 |
| 20260503001059 | 68 | 235 | 4.0 | 11.0 | 0.00 | 0.00 | 0.00 | 60 | 1009.4 |
| 20260503000959 | 68 | 214 | 4.0 | 11.0 | 0.00 | 0.00 | 0.00 | 60 | 1009.4 |
| 20260503000858 | 68 | 224 | 4.0 | 11.0 | 0.00 | 0.00 | 0.00 | 61 | 1009.4 |
| 20260503000823 | 68 | 214 | 4.0 | 11.0 | 0.00 | 0.00 | 0.00 | 60 | 1009.4 |
| 20260503000758 | 68 | 225 | 4.0 | 11.0 | 0.00 | 0.00 | 0.00 | 60 | 1009.4 |
| 20260503000656 | 68 | 259 | 5.0 | 11.0 | 0.00 | 0.00 | 0.00 | 60 | 1009.4 |
| 20260503000555 | 68 | 191 | 5.0 | 11.0 | 0.00 | 0.00 | 0.00 | 59 | 1009.4 |
| 20260503000543 | 68 | 243 | 5.0 | 11.0 | 0.00 | 0.00 | 0.00 | 59 | 1009.5 |
| 20260503000456 | 68 | 195 | 5.0 | 11.0 | 0.00 | 0.00 | 0.00 | 59 | 1009.4 |
| 20260503000434 | 68 | 160 | 5.0 | 11.0 | 0.00 | 0.00 | 0.00 | 59 | 1009.4 |
| 20260503000256 | 68 | 212 | 5.0 | 11.0 | 0.00 | 0.00 | 0.00 | 59 | 1009.5 |
| 20260503000156 | 68 | 204 | 5.0 | 11.0 | 0.00 | 0.00 | 0.00 | 59 | 1009.4 |
| 20260503000056 | 68 | 243 | 4.0 | 11.0 | 0.00 | 0.00 | 0.00 | 59 | 1009.5 |
| 20260502235955 | 68 | 166 | 4.0 | 11.0 | 0.00 | 0.00 | 0.00 | 60 | 1009.5 |
| 20260502235856 | 68 | 219 | 4.0 | 11.0 | 0.00 | 0.00 | 0.00 | 60 | 1009.5 |
| 20260502235825 | 68 | 201 | 3.0 | 11.0 | 0.00 | 0.00 | 0.00 | 60 | 1009.5 |
| 20260502235756 | 68 | 253 | 3.0 | 11.0 | 0.00 | 0.00 | 0.00 | 60 | 1009.5 |
| 20260502235656 | 68 | 231 | 3.0 | 11.0 | 0.00 | 0.00 | 0.00 | 60 | 1009.5 |
| 20260502235550 | 69 | 224 | 3.0 | 10.0 | 0.00 | 0.00 | 0.00 | 61 | 1009.5 |
| 20260502235451 | 69 | 249 | 2.0 | 7.0 | 0.00 | 0.00 | 0.00 | 61 | 1009.6 |
| 20260502235350 | 69 | 203 | 2.0 | 8.0 | 0.00 | 0.00 | 0.00 | 60 | 1009.5 |
| 20260502235320 | 69 | 224 | 2.0 | 8.0 | 0.00 | 0.00 | 0.00 | 61 | 1009.6 |
| 20260502235250 | 69 | 267 | 2.0 | 10.0 | 0.00 | 0.00 | 0.00 | 61 | 1009.6 |
| 20260502235150 | 69 | 231 | 3.0 | 10.0 | 0.00 | 0.00 | 0.00 | 61 | 1009.6 |
| 20260502235048 | 69 | 226 | 3.0 | 10.0 | 0.00 | 0.00 | 0.00 | 62 | 1009.6 |
| 20260502234948 | 69 | 242 | 4.0 | 10.0 | 0.00 | 0.00 | 0.00 | 62 | 1009.6 |
| 20260502234848 | 69 | 210 | 4.0 | 11.0 | 0.00 | 0.00 | 0.00 | 62 | 1009.6 |
| 20260502234821 | 69 | 236 | 4.0 | 11.0 | 0.00 | 0.00 | 0.00 | 62 | 1009.7 |
| 20260502234748 | 68 | 210 | 4.0 | 11.0 | 0.00 | 0.00 | 0.00 | 62 | 1009.7 |
| 20260502234648 | 68 | 203 | 4.0 | 11.0 | 0.00 | 0.00 | 0.00 | 62 | 1009.7 |
| 20260502234549 | 68 | 245 | 5.0 | 11.0 | 0.00 | 0.00 | 0.00 | 62 | 1009.7 |
| 20260502234448 | 68 | 238 | 5.0 | 11.0 | 0.00 | 0.00 | 0.00 | 62 | 1009.7 |
| 20260502234348 | 68 | 266 | 5.0 | 11.0 | 0.00 | 0.00 | 0.00 | 61 | 1009.7 |
| 20260502234320 | 68 | 228 | 5.0 | 11.0 | 0.00 | 0.00 | 0.00 | 61 | 1009.7 |
| 20260502234246 | 68 | 207 | 5.0 | 11.0 | 0.00 | 0.00 | 0.00 | 61 | 1009.7 |
| 20260502234146 | 69 | 235 | 4.0 | 11.0 | 0.00 | 0.00 | 0.00 | 60 | 1009.7 |
| 20260502234046 | 69 | 271 | 4.0 | 11.0 | 0.00 | 0.00 | 0.00 | 61 | 1009.7 |
| 20260502233946 | 69 | 221 | 3.0 | 11.0 | 0.00 | 0.00 | 0.00 | 62 | 1009.7 |
| 20260502233842 | 69 | 218 | 3.0 | 11.0 | 0.00 | 0.00 | 0.00 | 62 | 1009.7 |
| 20260502233821 | 69 | 255 | 3.0 | 11.0 | 0.00 | 0.00 | 0.00 | 62 | 1009.7 |
| 20260502233742 | 69 | 221 | 3.0 | 11.0 | 0.00 | 0.00 | 0.00 | 62 | 1009.7 |
| 20260502233642 | 69 | 212 | 3.0 | 11.0 | 0.00 | 0.00 | 0.00 | 61 | 1009.7 |
| 20260502233542 | 69 | 243 | 2.0 | 8.0 | 0.00 | 0.00 | 0.00 | 62 | 1009.8 |
| 20260502233442 | 69 | 215 | 2.0 | 8.0 | 0.00 | 0.00 | 0.00 | 63 | 1009.8 |
| 20260502233342 | 69 | 238 | 2.0 | 8.0 | 0.00 | 0.00 | 0.00 | 63 | 1009.8 |
| 20260502233319 | 69 | 292 | 3.0 | 8.0 | 0.00 | 0.00 | 0.00 | 63 | 1009.8 |
| 20260502233243 | 69 | 240 | 3.0 | 9.0 | 0.00 | 0.00 | 0.00 | 62 | 1009.8 |
| 20260502233142 | 69 | 250 | 3.0 | 9.0 | 0.00 | 0.00 | 0.00 | 62 | 1009.8 |
| 20260502233043 | 69 | 243 | 3.0 | 9.0 | 0.00 | 0.00 | 0.00 | 62 | 1009.8 |
| 20260502232942 | 69 | 229 | 4.0 | 9.0 | 0.00 | 0.00 | 0.00 | 62 | 1009.8 |
| 20260502232842 | 69 | 235 | 4.0 | 9.0 | 0.00 | 0.00 | 0.00 | 63 | 1009.8 |
| 20260502232818 | 69 | 257 | 4.0 | 9.0 | 0.00 | 0.00 | 0.00 | 63 | 1009.8 |
| 20260502232742 | 69 | 225 | 4.0 | 9.0 | 0.00 | 0.00 | 0.00 | 63 | 1009.7 |
| 20260502232642 | 69 | 256 | 4.0 | 9.0 | 0.00 | 0.00 | 0.00 | 63 | 1009.8 |
| 20260502232542 | 69 | 248 | 4.0 | 9.0 | 0.00 | 0.00 | 0.00 | 62 | 1009.7 |
| 20260502232442 | 69 | 238 | 4.0 | 9.0 | 0.00 | 0.00 | 0.00 | 62 | 1009.8 |
| 20260502232342 | 69 | 245 | 4.0 | 9.0 | 0.00 | 0.00 | 0.00 | 62 | 1009.7 |
| 20260502232316 | 69 | 232 | 4.0 | 9.0 | 0.00 | 0.00 | 0.00 | 61 | 1009.7 |
| 20260502232242 | 69 | 250 | 4.0 | 9.0 | 0.00 | 0.00 | 0.00 | 61 | 1009.8 |
| 20260502232142 | 69 | 263 | 4.0 | 9.0 | 0.00 | 0.00 | 0.00 | 62 | 1009.8 |
| 20260502232042 | 69 | 245 | 4.0 | 9.0 | 0.00 | 0.00 | 0.00 | 61 | 1009.8 |
| 20260502231942 | 69 | 210 | 3.0 | 9.0 | 0.00 | 0.00 | 0.00 | 61 | 1009.8 |
| 20260502231842 | 70 | 283 | 3.0 | 9.0 | 0.00 | 0.00 | 0.00 | 62 | 1009.8 |
| 20260502231816 | 70 | 245 | 3.0 | 9.0 | 0.00 | 0.00 | 0.00 | 61 | 1009.8 |
| 20260502231742 | 70 | 290 | 3.0 | 9.0 | 0.00 | 0.00 | 0.00 | 61 | 1009.8 |
| 20260502231643 | 70 | 246 | 3.0 | 9.0 | 0.00 | 0.00 | 0.00 | 62 | 1009.8 |
| 20260502231542 | 70 | 217 | 3.0 | 9.0 | 0.00 | 0.00 | 0.00 | 62 | 1009.8 |
| 20260502231442 | 70 | 241 | 4.0 | 9.0 | 0.00 | 0.00 | 0.00 | 61 | 1009.9 |
| 20260502231342 | 70 | 221 | 4.0 | 9.0 | 0.00 | 0.00 | 0.00 | 61 | 1009.8 |
| 20260502231316 | 70 | 224 | 4.0 | 9.0 | 0.00 | 0.00 | 0.00 | 61 | 1009.8 |
| 20260502231242 | 70 | 212 | 3.0 | 9.0 | 0.00 | 0.00 | 0.00 | 61 | 1009.9 |
| 20260502231142 | 70 | 232 | 3.0 | 9.0 | 0.00 | 0.00 | 0.00 | 61 | 1009.9 |
| 20260502231043 | 70 | 273 | 4.0 | 9.0 | 0.00 | 0.00 | 0.00 | 61 | 1009.9 |
| 20260502230941 | 70 | 221 | 4.0 | 9.0 | 0.00 | 0.00 | 0.00 | 61 | 1009.9 |
| 20260502230842 | 70 | 238 | 3.0 | 9.0 | 0.00 | 0.00 | 0.00 | 62 | 1009.9 |
| 20260502230815 | 70 | 271 | 3.0 | 9.0 | 0.00 | 0.00 | 0.00 | 62 | 1009.9 |
| 20260502230742 | 70 | 260 | 3.0 | 9.0 | 0.00 | 0.00 | 0.00 | 61 | 1009.9 |
| 20260502230642 | 71 | 214 | 3.0 | 9.0 | 0.00 | 0.00 | 0.00 | 61 | 1010.0 |
| 20260502230542 | 71 | 210 | 3.0 | 9.0 | 0.00 | 0.00 | 0.00 | 60 | 1010.0 |
| 20260502230442 | 71 | 217 | 3.0 | 9.0 | 0.00 | 0.00 | 0.00 | 61 | 1010.0 |
| 20260502230342 | 71 | 260 | 3.0 | 9.0 | 0.00 | 0.00 | 0.00 | 61 | 1010.1 |
| 20260502230315 | 71 | 228 | 3.0 | 9.0 | 0.00 | 0.00 | 0.00 | 61 | 1010.1 |
| 20260502230242 | 71 | 240 | 3.0 | 9.0 | 0.00 | 0.00 | 0.00 | 61 | 1010.1 |
| 20260502230142 | 71 | 242 | 3.0 | 9.0 | 0.00 | 0.00 | 0.00 | 60 | 1010.1 |
| 20260502230042 | 71 | 257 | 3.0 | 9.0 | 0.00 | 0.00 | 0.00 | 61 | 1010.1 |
| 20260502225942 | 71 | 250 | 3.0 | 9.0 | 0.00 | 0.00 | 0.00 | 62 | 1010.1 |
| 20260502225842 | 71 | 252 | 3.0 | 9.0 | 0.00 | 0.00 | 0.00 | 62 | 1010.1 |
| 20260502225813 | 71 | 181 | 3.0 | 9.0 | 0.00 | 0.00 | 0.00 | 62 | 1010.1 |
| 20260502225742 | 71 | 302 | 3.0 | 9.0 | 0.00 | 0.00 | 0.00 | 62 | 1010.1 |
| 20260502225642 | 71 | 267 | 3.0 | 9.0 | 0.00 | 0.00 | 0.00 | 63 | 1010.2 |
| 20260502225538 | 71 | 245 | 4.0 | 9.0 | 0.00 | 0.00 | 0.00 | 62 | 1010.2 |
| 20260502225438 | 71 | 282 | 4.0 | 12.0 | 0.00 | 0.00 | 0.00 | 62 | 1010.1 |
| 20260502225339 | 71 | 239 | 4.0 | 12.0 | 0.00 | 0.00 | 0.00 | 62 | 1010.2 |
| 20260502225315 | 71 | 256 | 4.0 | 12.0 | 0.00 | 0.00 | 0.00 | 62 | 1010.2 |
| 20260502225236 | 71 | 217 | 3.0 | 12.0 | 0.00 | 0.00 | 0.00 | 62 | 1010.2 |
| 20260502225136 | 71 | 256 | 3.0 | 12.0 | 0.00 | 0.00 | 0.00 | 62 | 1010.2 |
| 20260502225036 | 70 | 295 | 4.0 | 12.0 | 0.00 | 0.00 | 0.00 | 62 | 1010.2 |
| 20260502224936 | 70 | 269 | 4.0 | 12.0 | 0.00 | 0.00 | 0.00 | 61 | 1010.1 |
| 20260502224836 | 71 | 245 | 4.0 | 12.0 | 0.00 | 0.00 | 0.00 | 61 | 1010.2 |
| 20260502224814 | 71 | 239 | 4.0 | 12.0 | 0.00 | 0.00 | 0.00 | 61 | 1010.2 |
| 20260502224736 | 71 | 238 | 4.0 | 12.0 | 0.00 | 0.00 | 0.00 | 61 | 1010.2 |
| 20260502224636 | 71 | 297 | 4.0 | 12.0 | 0.00 | 0.00 | 0.00 | 61 | 1010.2 |
| 20260502224545 | 71 | 295 | 3.0 | 12.0 | 0.00 | 0.00 | 0.00 | 60 | 1010.2 |
| 20260502224536 | 71 | 239 | 4.0 | 12.0 | 0.00 | 0.00 | 0.00 | 60 | 1010.2 |
| 20260502224436 | 71 | 262 | 3.0 | 12.0 | 0.00 | 0.00 | 0.00 | 60 | 1010.2 |
| 20260502224427 | 71 | 236 | 3.0 | 12.0 | 0.00 | 0.00 | 0.00 | 60 | 1010.2 |
| 20260502224236 | 71 | 259 | 3.0 | 12.0 | 0.00 | 0.00 | 0.00 | 60 | 1010.3 |
| 20260502224137 | 71 | 259 | 3.0 | 12.0 | 0.00 | 0.00 | 0.00 | 59 | 1010.3 |
| 20260502224036 | 71 | 250 | 3.0 | 12.0 | 0.00 | 0.00 | 0.00 | 59 | 1010.3 |
| 20260502223936 | 71 | 225 | 2.0 | 9.0 | 0.00 | 0.00 | 0.00 | 59 | 1010.3 |
| 20260502223836 | 71 | 266 | 2.0 | 9.0 | 0.00 | 0.00 | 0.00 | 59 | 1010.3 |
| 20260502223815 | 71 | 241 | 2.0 | 9.0 | 0.00 | 0.00 | 0.00 | 59 | 1010.3 |
| 20260502223736 | 71 | 221 | 2.0 | 9.0 | 0.00 | 0.00 | 0.00 | 59 | 1010.4 |
| 20260502223636 | 71 | 245 | 2.0 | 9.0 | 0.00 | 0.00 | 0.00 | 59 | 1010.4 |
| 20260502223536 | 72 | 288 | 2.0 | 9.0 | 0.00 | 0.00 | 0.00 | 58 | 1010.4 |
| 20260502223436 | 72 | 282 | 2.0 | 7.0 | 0.00 | 0.00 | 0.00 | 58 | 1010.4 |
| 20260502223336 | 71 | 283 | 3.0 | 8.0 | 0.00 | 0.00 | 0.00 | 58 | 1010.4 |
| 20260502223316 | 72 | 283 | 3.0 | 11.0 | 0.00 | 0.00 | 0.00 | 58 | 1010.4 |
| 20260502223236 | 72 | 283 | 3.0 | 11.0 | 0.00 | 0.00 | 0.00 | 58 | 1010.4 |
| 20260502223136 | 72 | 256 | 3.0 | 11.0 | 0.00 | 0.00 | 0.00 | 58 | 1010.4 |
| 20260502223037 | 71 | 250 | 3.0 | 11.0 | 0.00 | 0.00 | 0.00 | 58 | 1010.4 |
| 20260502222936 | 71 | 212 | 3.0 | 11.0 | 0.00 | 0.00 | 0.00 | 59 | 1010.5 |
| 20260502222836 | 71 | 253 | 3.0 | 11.0 | 0.00 | 0.00 | 0.00 | 60 | 1010.5 |
| 20260502222813 | 71 | 221 | 3.0 | 11.0 | 0.00 | 0.00 | 0.00 | 60 | 1010.5 |
| 20260502222736 | 71 | 231 | 3.0 | 11.0 | 0.00 | 0.00 | 0.00 | 60 | 1010.5 |
| 20260502222636 | 71 | 316 | 4.0 | 11.0 | 0.00 | 0.00 | 0.00 | 59 | 1010.5 |
| 20260502222537 | 71 | 302 | 4.0 | 11.0 | 0.00 | 0.00 | 0.00 | 59 | 1010.5 |
| 20260502222432 | 71 | 239 | 4.0 | 11.0 | 0.00 | 0.00 | 0.00 | 57 | 1010.5 |
| 20260502222332 | 71 | 243 | 4.0 | 11.0 | 0.00 | 0.00 | 0.00 | 58 | 1010.5 |
| 20260502222313 | 71 | 239 | 4.0 | 11.0 | 0.00 | 0.00 | 0.00 | 58 | 1010.5 |
| 20260502222233 | 71 | 243 | 4.0 | 11.0 | 0.00 | 0.00 | 0.00 | 57 | 1010.5 |
| 20260502222132 | 72 | 221 | 4.0 | 11.0 | 0.00 | 0.00 | 0.00 | 57 | 1010.6 |
| 20260502222032 | 72 | 263 | 4.0 | 11.0 | 0.00 | 0.00 | 0.00 | 59 | 1010.5 |
| 20260502221932 | 72 | 267 | 4.0 | 11.0 | 0.00 | 0.00 | 0.00 | 58 | 1010.6 |
| 20260502221833 | 71 | 239 | 4.0 | 11.0 | 0.00 | 0.00 | 0.00 | 58 | 1010.7 |
| 20260502221815 | 71 | 287 | 4.0 | 11.0 | 0.00 | 0.00 | 0.00 | 58 | 1010.7 |
| 20260502221801 | 72 | 248 | 3.0 | 9.0 | 0.00 | 0.00 | 0.00 | 57 | 1010.7 |
| 20260502221732 | 71 | 224 | 4.0 | 11.0 | 0.00 | 0.00 | 0.00 | 59 | 1010.7 |
| 20260502221648 | 71 | 260 | 4.0 | 11.0 | 0.00 | 0.00 | 0.00 | 59 | 1010.7 |
| 20260502221532 | 71 | 221 | 4.0 | 11.0 | 0.00 | 0.00 | 0.00 | 59 | 1010.7 |
| 20260502221434 | 71 | 259 | 4.0 | 11.0 | 0.00 | 0.00 | 0.00 | 59 | 1010.7 |
| 20260502221426 | 71 | 215 | 3.0 | 11.0 | 0.00 | 0.00 | 0.00 | 57 | 1010.7 |
| 20260502221233 | 72 | 231 | 3.0 | 9.0 | 0.00 | 0.00 | 0.00 | 58 | 1010.7 |
| 20260502221132 | 72 | 242 | 3.0 | 9.0 | 0.00 | 0.00 | 0.00 | 59 | 1010.7 |
| 20260502221032 | 72 | 242 | 2.0 | 9.0 | 0.00 | 0.00 | 0.00 | 58 | 1010.7 |
| 20260502220932 | 72 | 260 | 2.0 | 9.0 | 0.00 | 0.00 | 0.00 | 59 | 1010.7 |
| 20260502220832 | 72 | 222 | 2.0 | 8.0 | 0.00 | 0.00 | 0.00 | 59 | 1010.7 |
| 20260502220816 | 72 | 239 | 2.0 | 8.0 | 0.00 | 0.00 | 0.00 | 60 | 1010.7 |
| 20260502220732 | 72 | 203 | 3.0 | 8.0 | 0.00 | 0.00 | 0.00 | 60 | 1010.8 |
| 20260502220632 | 72 | 165 | 3.0 | 11.0 | 0.00 | 0.00 | 0.00 | 61 | 1010.8 |
| 20260502220528 | 72 | 238 | 3.0 | 11.0 | 0.00 | 0.00 | 0.00 | 61 | 1010.8 |
| 20260502220428 | 71 | 248 | 3.0 | 11.0 | 0.00 | 0.00 | 0.00 | 61 | 1010.8 |
| 20260502220328 | 71 | 256 | 3.0 | 11.0 | 0.00 | 0.00 | 0.00 | 62 | 1010.8 |
| 20260502220308 | 71 | 252 | 3.0 | 11.0 | 0.00 | 0.00 | 0.00 | 61 | 1010.8 |
| 20260502220228 | 71 | 269 | 3.0 | 11.0 | 0.00 | 0.00 | 0.00 | 62 | 1010.8 |
| 20260502220128 | 71 | 233 | 3.0 | 11.0 | 0.00 | 0.00 | 0.00 | 61 | 1010.8 |
| 20260502220026 | 71 | 235 | 4.0 | 11.0 | 0.00 | 0.00 | 0.00 | 61 | 1010.8 |
| 20260502215926 | 71 | 304 | 4.0 | 11.0 | 0.00 | 0.00 | 0.00 | 61 | 1010.9 |
| 20260502215843 | 71 | 210 | 4.0 | 11.0 | 0.00 | 0.00 | 0.00 | 61 | 1010.9 |
| 20260502215811 | 71 | 125 | 4.0 | 11.0 | 0.00 | 0.00 | 0.00 | 60 | 1010.9 |
| 20260502215728 | 71 | 208 | 3.0 | 11.0 | 0.00 | 0.00 | 0.00 | 60 | 1010.9 |
| 20260502215626 | 71 | 245 | 3.0 | 9.0 | 0.00 | 0.00 | 0.00 | 60 | 1010.9 |
| 20260502215526 | 71 | 252 | 2.0 | 9.0 | 0.00 | 0.00 | 0.00 | 60 | 1010.9 |
| 20260502215426 | 71 | 229 | 2.0 | 9.0 | 0.00 | 0.00 | 0.00 | 61 | 1011.0 |
| 20260502215326 | 71 | 288 | 3.0 | 9.0 | 0.00 | 0.00 | 0.00 | 61 | 1010.9 |
| 20260502215307 | 71 | 298 | 3.0 | 9.0 | 0.00 | 0.00 | 0.00 | 61 | 1010.9 |
| 20260502215229 | 71 | 298 | 3.0 | 10.0 | 0.00 | 0.00 | 0.00 | 63 | 1011.0 |
| 20260502215126 | 71 | 298 | 3.0 | 10.0 | 0.00 | 0.00 | 0.00 | 62 | 1011.0 |
| 20260502215026 | 71 | 242 | 3.0 | 10.0 | 0.00 | 0.00 | 0.00 | 61 | 1011.0 |
| 20260502214926 | 71 | 242 | 3.0 | 10.0 | 0.00 | 0.00 | 0.00 | 61 | 1011.0 |
| 20260502214827 | 71 | 239 | 3.0 | 10.0 | 0.00 | 0.00 | 0.00 | 61 | 1011.0 |
| 20260502214807 | 71 | 238 | 3.0 | 10.0 | 0.00 | 0.00 | 0.00 | 61 | 1011.0 |
| 20260502214725 | 71 | 233 | 4.0 | 10.0 | 0.00 | 0.00 | 0.00 | 61 | 1011.1 |
| 20260502214624 | 71 | 233 | 4.0 | 10.0 | 0.00 | 0.00 | 0.00 | 61 | 1011.1 |
| 20260502214524 | 71 | 273 | 5.0 | 10.0 | 0.00 | 0.00 | 0.00 | 61 | 1011.1 |
| 20260502214424 | 70 | 228 | 5.0 | 12.0 | 0.00 | 0.00 | 0.00 | 61 | 1011.1 |
| 20260502214324 | 70 | 246 | 5.0 | 12.0 | 0.00 | 0.00 | 0.00 | 61 | 1011.1 |
| 20260502214305 | 70 | 243 | 5.0 | 12.0 | 0.00 | 0.00 | 0.00 | 61 | 1011.1 |
| 20260502214224 | 70 | 256 | 4.0 | 12.0 | 0.00 | 0.00 | 0.00 | 63 | 1011.1 |
| 20260502214124 | 70 | 235 | 4.0 | 12.0 | 0.00 | 0.00 | 0.00 | 62 | 1011.1 |
| 20260502214024 | 70 | 218 | 4.0 | 12.0 | 0.00 | 0.00 | 0.00 | 62 | 1011.2 |
| 20260502213924 | 70 | 225 | 4.0 | 12.0 | 0.00 | 0.00 | 0.00 | 61 | 1011.2 |
| 20260502213824 | 70 | 222 | 4.0 | 12.0 | 0.00 | 0.00 | 0.00 | 61 | 1011.2 |
| 20260502213806 | 71 | 241 | 4.0 | 12.0 | 0.00 | 0.00 | 0.00 | 61 | 1011.2 |
| 20260502213727 | 71 | 273 | 4.0 | 12.0 | 0.00 | 0.00 | 0.00 | 60 | 1011.2 |
| 20260502213624 | 71 | 210 | 3.0 | 12.0 | 0.00 | 0.00 | 0.00 | 60 | 1011.2 |
| 20260502213525 | 71 | 282 | 3.0 | 12.0 | 0.00 | 0.00 | 0.00 | 60 | 1011.2 |
| 20260502213419 | 71 | 233 | 2.0 | 9.0 | 0.00 | 0.00 | 0.00 | 61 | 1011.2 |
| 20260502213306 | 71 | 257 | 2.0 | 9.0 | 0.00 | 0.00 | 0.00 | 62 | 1011.2 |
| 20260502213220 | 71 | 253 | 2.0 | 9.0 | 0.00 | 0.00 | 0.00 | 62 | 1011.2 |
| 20260502213121 | 71 | 223 | 3.0 | 9.0 | 0.00 | 0.00 | 0.00 | 61 | 1011.2 |
| 20260502213028 | 71 | 250 | 2.0 | 6.0 | 0.00 | 0.00 | 0.00 | 62 | 1011.3 |
| 20260502213020 | 71 | 229 | 2.0 | 9.0 | 0.00 | 0.00 | 0.00 | 60 | 1011.3 |